| time (UTC) | temp F | wind direction | speed knots | gust knots | rain 1hr in | rain 24hr in | rain mn in | humidity % | barometer mb |
| 20260504223438 | 73 | 222 | 3.5 | 0.0 | 0.00 | 0.00 | 0.00 | 33 | 1010.2 |
| 20260504223340 | 73 | 247 | 4.3 | 0.0 | 0.00 | 0.00 | 0.00 | 33 | 1010.2 |
| 20260504223221 | 73 | 181 | 3.5 | 0.0 | 0.00 | 0.00 | 0.00 | 33 | 1010.2 |
| 20260504223129 | 73 | 236 | 3.5 | 0.0 | 0.00 | 0.00 | 0.00 | 33 | 1010.2 |
| 20260504223028 | 73 | 221 | 3.5 | 0.0 | 0.00 | 0.00 | 0.00 | 33 | 1010.2 |
| 20260504222928 | 73 | 239 | 3.5 | 0.0 | 0.00 | 0.00 | 0.00 | 33 | 1010.2 |
| 20260504222826 | 73 | 193 | 2.6 | 0.0 | 0.00 | 0.00 | 0.00 | 33 | 1010.2 |
| 20260504222728 | 73 | 223 | 2.6 | 0.0 | 0.00 | 0.00 | 0.00 | 33 | 1010.2 |
| 20260504222629 | 73 | 183 | 2.6 | 0.0 | 0.00 | 0.00 | 0.00 | 33 | 1010.2 |
| 20260504222534 | 73 | 165 | 2.6 | 0.0 | 0.00 | 0.00 | 0.00 | 33 | 1010.2 |
| 20260504222434 | 73 | 178 | 1.7 | 0.0 | 0.00 | 0.00 | 0.00 | 33 | 1010.2 |
| 20260504222334 | 73 | 196 | 1.7 | 0.0 | 0.00 | 0.00 | 0.00 | 33 | 1010.2 |
| 20260504222257 | 73 | 115 | 1.7 | 0.0 | 0.00 | 0.00 | 0.00 | 33 | 1010.2 |
| 20260504222137 | 73 | 217 | 1.7 | 0.0 | 0.00 | 0.00 | 0.00 | 33 | 1010.2 |
| 20260504222036 | 73 | 262 | 1.7 | 0.0 | 0.00 | 0.00 | 0.00 | 33 | 1010.2 |
| 20260504221956 | 73 | 197 | 2.6 | 0.0 | 0.00 | 0.00 | 0.00 | 33 | 1010.2 |
| 20260504221854 | 73 | 155 | 2.6 | 0.0 | 0.00 | 0.00 | 0.00 | 33 | 1010.2 |
| 20260504221734 | 73 | 222 | 2.6 | 0.0 | 0.00 | 0.00 | 0.00 | 33 | 1010.2 |
| 20260504221635 | 73 | 207 | 2.6 | 0.0 | 0.00 | 0.00 | 0.00 | 33 | 1010.2 |
| 20260504221536 | 73 | 233 | 2.6 | 0.0 | 0.00 | 0.00 | 0.00 | 33 | 1010.2 |
| 20260504221436 | 73 | 236 | 3.5 | 0.0 | 0.00 | 0.00 | 0.00 | 33 | 1010.2 |
| 20260504221337 | 73 | 253 | 3.5 | 0.0 | 0.00 | 0.00 | 0.00 | 33 | 1010.4 |
| 20260504221235 | 73 | 323 | 4.3 | 0.0 | 0.00 | 0.00 | 0.00 | 33 | 1010.4 |
| 20260504221136 | 73 | 166 | 5.2 | 0.0 | 0.00 | 0.00 | 0.00 | 33 | 1010.4 |
| 20260504221055 | 73 | 213 | 4.3 | 0.0 | 0.00 | 0.00 | 0.00 | 32 | 1010.4 |
| 20260504220939 | 73 | 179 | 4.3 | 0.0 | 0.00 | 0.00 | 0.00 | 33 | 1010.4 |
| 20260504220837 | 73 | 180 | 4.3 | 0.0 | 0.00 | 0.00 | 0.00 | 33 | 1010.4 |
| 20260504220721 | 73 | 212 | 4.3 | 0.0 | 0.00 | 0.00 | 0.00 | 33 | 1010.4 |
| 20260504220647 | 73 | 184 | 4.3 | 0.0 | 0.00 | 0.00 | 0.00 | 33 | 1010.4 |
| 20260504220602 | 73 | 184 | 4.3 | 0.0 | 0.00 | 0.00 | 0.00 | 32 | 1010.4 |
| 20260504220426 | 73 | 208 | 4.3 | 0.0 | 0.00 | 0.00 | 0.00 | 32 | 1010.4 |
| 20260504220348 | 73 | 260 | 3.5 | 0.0 | 0.00 | 0.00 | 0.00 | 32 | 1010.4 |
| 20260504220229 | 74 | 178 | 2.6 | 0.0 | 0.00 | 0.00 | 0.00 | 32 | 1010.4 |
| 20260504220129 | 74 | 182 | 1.7 | 0.0 | 0.00 | 0.00 | 0.00 | 33 | 1010.4 |
| 20260504220032 | 74 | 163 | 2.6 | 0.0 | 0.00 | 0.00 | 0.00 | 33 | 1010.4 |
| 20260504215932 | 74 | 157 | 2.6 | 0.0 | 0.00 | 0.00 | 0.00 | 33 | 1010.4 |
| 20260504215830 | 74 | 178 | 2.6 | 0.0 | 0.00 | 0.00 | 0.00 | 33 | 1010.5 |
| 20260504215732 | 74 | 266 | 2.6 | 0.0 | 0.00 | 0.00 | 0.00 | 33 | 1010.5 |
| 20260504215633 | 73 | 190 | 3.5 | 0.0 | 0.00 | 0.00 | 0.00 | 33 | 1010.5 |
| 20260504215535 | 73 | 190 | 3.5 | 0.0 | 0.00 | 0.00 | 0.00 | 33 | 1010.5 |
| 20260504215434 | 73 | 271 | 3.5 | 0.0 | 0.00 | 0.00 | 0.00 | 33 | 1010.5 |
| 20260504215340 | 73 | 211 | 4.3 | 0.0 | 0.00 | 0.00 | 0.00 | 33 | 1010.5 |
| 20260504215238 | 73 | 268 | 4.3 | 0.0 | 0.00 | 0.00 | 0.00 | 33 | 1010.5 |
| 20260504215143 | 73 | 188 | 5.2 | 0.0 | 0.00 | 0.00 | 0.00 | 33 | 1010.5 |
| 20260504215029 | 73 | 205 | 4.3 | 0.0 | 0.00 | 0.00 | 0.00 | 33 | 1010.5 |
| 20260504214933 | 73 | 215 | 4.3 | 0.0 | 0.00 | 0.00 | 0.00 | 32 | 1010.5 |
| 20260504214834 | 73 | 241 | 4.3 | 0.0 | 0.00 | 0.00 | 0.00 | 32 | 1010.5 |
| 20260504214755 | 73 | 209 | 4.3 | 0.0 | 0.00 | 0.00 | 0.00 | 32 | 1010.5 |
| 20260504214632 | 73 | 179 | 4.3 | 0.0 | 0.00 | 0.00 | 0.00 | 33 | 1010.5 |
| 20260504214533 | 73 | 185 | 4.3 | 0.0 | 0.00 | 0.00 | 0.00 | 32 | 1010.5 |
| 20260504214435 | 73 | 180 | 4.3 | 0.0 | 0.00 | 0.00 | 0.00 | 32 | 1010.5 |
| 20260504214341 | 73 | 180 | 3.5 | 0.0 | 0.00 | 0.00 | 0.00 | 32 | 1010.5 |
| 20260504214241 | 74 | 175 | 3.5 | 0.0 | 0.00 | 0.00 | 0.00 | 32 | 1010.5 |
| 20260504214144 | 74 | 167 | 3.5 | 0.0 | 0.00 | 0.00 | 0.00 | 33 | 1010.5 |
| 20260504214106 | 73 | 192 | 4.3 | 0.0 | 0.00 | 0.00 | 0.00 | 33 | 1010.5 |
| 20260504213944 | 73 | 251 | 4.3 | 0.0 | 0.00 | 0.00 | 0.00 | 32 | 1010.5 |
| 20260504213843 | 73 | 230 | 4.3 | 0.0 | 0.00 | 0.00 | 0.00 | 32 | 1010.5 |
| 20260504213724 | 73 | 195 | 3.5 | 0.0 | 0.00 | 0.00 | 0.00 | 32 | 1010.5 |
| 20260504213649 | 73 | 178 | 3.5 | 0.0 | 0.00 | 0.00 | 0.00 | 32 | 1010.5 |
| 20260504213550 | 74 | 188 | 2.6 | 0.0 | 0.00 | 0.00 | 0.00 | 32 | 1010.5 |
| 20260504213449 | 74 | 259 | 2.6 | 0.0 | 0.00 | 0.00 | 0.00 | 32 | 1010.5 |
| 20260504213329 | 74 | 184 | 2.6 | 0.0 | 0.00 | 0.00 | 0.00 | 32 | 1010.5 |
| 20260504213247 | 74 | 161 | 2.6 | 0.0 | 0.00 | 0.00 | 0.00 | 32 | 1010.5 |
| 20260504213147 | 74 | 203 | 2.6 | 0.0 | 0.00 | 0.00 | 0.00 | 32 | 1010.5 |
| 20260504213044 | 74 | 190 | 2.6 | 0.0 | 0.00 | 0.00 | 0.00 | 32 | 1010.5 |
| 20260504212945 | 74 | 315 | 2.6 | 0.0 | 0.00 | 0.00 | 0.00 | 32 | 1010.5 |
| 20260504212844 | 74 | 189 | 2.6 | 0.0 | 0.00 | 0.00 | 0.00 | 32 | 1010.6 |
| 20260504212732 | 74 | 216 | 2.6 | 0.0 | 0.00 | 0.00 | 0.00 | 32 | 1010.6 |
| 20260504212629 | 74 | 249 | 2.6 | 0.0 | 0.00 | 0.00 | 0.00 | 32 | 1010.6 |
| 20260504212531 | 74 | 205 | 3.5 | 0.0 | 0.00 | 0.00 | 0.00 | 32 | 1010.6 |
| 20260504212448 | 74 | 186 | 3.5 | 0.0 | 0.00 | 0.00 | 0.00 | 32 | 1010.6 |
| 20260504212328 | 74 | 290 | 3.5 | 0.0 | 0.00 | 0.00 | 0.00 | 32 | 1010.6 |
| 20260504212248 | 74 | 170 | 2.6 | 0.0 | 0.00 | 0.00 | 0.00 | 32 | 1010.6 |
| 20260504212132 | 74 | 12 | 2.6 | 0.0 | 0.00 | 0.00 | 0.00 | 32 | 1010.6 |
| 20260504212033 | 74 | 236 | 2.6 | 0.0 | 0.00 | 0.00 | 0.00 | 33 | 1010.6 |
| 20260504211934 | 74 | 253 | 2.6 | 0.0 | 0.00 | 0.00 | 0.00 | 32 | 1010.6 |
| 20260504211834 | 74 | 155 | 2.6 | 0.0 | 0.00 | 0.00 | 0.00 | 33 | 1010.6 |
| 20260504211735 | 74 | 210 | 2.6 | 0.0 | 0.00 | 0.00 | 0.00 | 32 | 1010.6 |
| 20260504211656 | 74 | 196 | 2.6 | 0.0 | 0.00 | 0.00 | 0.00 | 32 | 1010.6 |
| 20260504211541 | 74 | 199 | 2.6 | 0.0 | 0.00 | 0.00 | 0.00 | 32 | 1010.6 |
| 20260504211441 | 74 | 201 | 2.6 | 0.0 | 0.00 | 0.00 | 0.00 | 31 | 1010.6 |
| 20260504211403 | 74 | 277 | 2.6 | 0.0 | 0.00 | 0.00 | 0.00 | 32 | 1010.5 |
| 20260504211224 | 74 | 234 | 3.5 | 0.0 | 0.00 | 0.00 | 0.00 | 32 | 1010.5 |
| 20260504211126 | 74 | 329 | 3.5 | 0.0 | 0.00 | 0.00 | 0.00 | 32 | 1010.5 |
| 20260504211027 | 74 | 251 | 3.5 | 0.0 | 0.00 | 0.00 | 0.00 | 32 | 1010.5 |
| 20260504210951 | 74 | 163 | 4.3 | 0.0 | 0.00 | 0.00 | 0.00 | 32 | 1010.5 |
| 20260504210850 | 74 | 205 | 3.5 | 0.0 | 0.00 | 0.00 | 0.00 | 32 | 1010.5 |
| 20260504210733 | 73 | 172 | 3.5 | 0.0 | 0.00 | 0.00 | 0.00 | 32 | 1010.5 |
| 20260504210634 | 73 | 157 | 3.5 | 0.0 | 0.00 | 0.00 | 0.00 | 32 | 1010.5 |
| 20260504210559 | 74 | 271 | 2.6 | 0.0 | 0.00 | 0.00 | 0.00 | 32 | 1010.5 |
| 20260504210500 | 74 | 243 | 2.6 | 0.0 | 0.00 | 0.00 | 0.00 | 32 | 1010.5 |
| 20260504210340 | 74 | 276 | 2.6 | 0.0 | 0.00 | 0.00 | 0.00 | 32 | 1010.5 |
| 20260504210301 | 74 | 143 | 2.6 | 0.0 | 0.00 | 0.00 | 0.00 | 32 | 1010.5 |
| 20260504210141 | 74 | 176 | 2.6 | 0.0 | 0.00 | 0.00 | 0.00 | 31 | 1010.5 |
| 20260504210043 | 74 | 305 | 2.6 | 0.0 | 0.00 | 0.00 | 0.00 | 31 | 1010.5 |
| 20260504210003 | 74 | 322 | 1.7 | 0.0 | 0.00 | 0.00 | 0.00 | 31 | 1010.5 |
| 20260504205837 | 74 | 282 | 1.7 | 0.0 | 0.00 | 0.00 | 0.00 | 31 | 1010.5 |
| 20260504205742 | 74 | 306 | 1.7 | 0.0 | 0.00 | 0.00 | 0.00 | 31 | 1010.5 |
| 20260504205624 | 74 | 292 | 1.7 | 0.0 | 0.00 | 0.00 | 0.00 | 32 | 1010.5 |
| 20260504205529 | 74 | 296 | 2.6 | 0.0 | 0.00 | 0.00 | 0.00 | 32 | 1010.5 |
| 20260504205445 | 74 | 192 | 1.7 | 0.0 | 0.00 | 0.00 | 0.00 | 32 | 1010.5 |
| 20260504205327 | 74 | 195 | 2.6 | 0.0 | 0.00 | 0.00 | 0.00 | 32 | 1010.5 |
| 20260504205228 | 74 | 200 | 2.6 | 0.0 | 0.00 | 0.00 | 0.00 | 32 | 1010.5 |
| 20260504205129 | 74 | 197 | 2.6 | 0.0 | 0.00 | 0.00 | 0.00 | 32 | 1010.5 |
| 20260504205032 | 74 | 249 | 2.6 | 0.0 | 0.00 | 0.00 | 0.00 | 32 | 1010.5 |
| 20260504204933 | 73 | 164 | 2.6 | 0.0 | 0.00 | 0.00 | 0.00 | 32 | 1010.5 |
| 20260504204858 | 73 | 135 | 3.5 | 0.0 | 0.00 | 0.00 | 0.00 | 32 | 1010.5 |
| 20260504204739 | 73 | 192 | 3.5 | 0.0 | 0.00 | 0.00 | 0.00 | 32 | 1010.5 |
| 20260504204640 | 73 | 159 | 3.5 | 0.0 | 0.00 | 0.00 | 0.00 | 31 | 1010.5 |
| 20260504204542 | 73 | 170 | 3.5 | 0.0 | 0.00 | 0.00 | 0.00 | 32 | 1010.5 |
| 20260504204439 | 73 | 247 | 3.5 | 0.0 | 0.00 | 0.00 | 0.00 | 31 | 1010.5 |
| 20260504204324 | 73 | 263 | 3.5 | 0.0 | 0.00 | 0.00 | 0.00 | 31 | 1010.5 |
| 20260504204225 | 74 | 226 | 3.5 | 0.0 | 0.00 | 0.00 | 0.00 | 31 | 1010.5 |
| 20260504204127 | 74 | 209 | 2.6 | 0.0 | 0.00 | 0.00 | 0.00 | 31 | 1010.5 |
| 20260504204026 | 74 | 206 | 2.6 | 0.0 | 0.00 | 0.00 | 0.00 | 31 | 1010.5 |
| 20260504203927 | 74 | 246 | 2.6 | 0.0 | 0.00 | 0.00 | 0.00 | 31 | 1010.5 |
| 20260504203826 | 74 | 194 | 1.7 | 0.0 | 0.00 | 0.00 | 0.00 | 31 | 1010.5 |
| 20260504203735 | 74 | 241 | 1.7 | 0.0 | 0.00 | 0.00 | 0.00 | 32 | 1010.5 |
| 20260504203655 | 74 | 244 | 1.7 | 0.0 | 0.00 | 0.00 | 0.00 | 31 | 1010.5 |
| 20260504203556 | 74 | 144 | 1.7 | 0.0 | 0.00 | 0.00 | 0.00 | 31 | 1010.5 |
| 20260504203432 | 74 | 171 | 1.7 | 0.0 | 0.00 | 0.00 | 0.00 | 31 | 1010.5 |
| 20260504203333 | 74 | 127 | 1.7 | 0.0 | 0.00 | 0.00 | 0.00 | 31 | 1010.5 |
| 20260504203235 | 74 | 163 | 1.7 | 0.0 | 0.00 | 0.00 | 0.00 | 31 | 1010.5 |
| 20260504203138 | 74 | 197 | 2.6 | 0.0 | 0.00 | 0.00 | 0.00 | 31 | 1010.5 |
| 20260504203044 | 74 | 245 | 2.6 | 0.0 | 0.00 | 0.00 | 0.00 | 31 | 1010.5 |
| 20260504203004 | 74 | 165 | 2.6 | 0.0 | 0.00 | 0.00 | 0.00 | 30 | 1010.5 |
| 20260504202824 | 74 | 184 | 2.6 | 0.0 | 0.00 | 0.00 | 0.00 | 30 | 1010.5 |
| 20260504202726 | 74 | 195 | 2.6 | 0.0 | 0.00 | 0.00 | 0.00 | 31 | 1010.5 |
| 20260504202627 | 74 | 172 | 2.6 | 0.0 | 0.00 | 0.00 | 0.00 | 31 | 1010.5 |
| 20260504202528 | 74 | 169 | 2.6 | 0.0 | 0.00 | 0.00 | 0.00 | 32 | 1010.5 |
| 20260504202425 | 74 | 169 | 2.6 | 0.0 | 0.00 | 0.00 | 0.00 | 32 | 1010.5 |
| 20260504202331 | 74 | 173 | 3.5 | 0.0 | 0.00 | 0.00 | 0.00 | 32 | 1010.5 |
| 20260504202248 | 74 | 192 | 3.5 | 0.0 | 0.00 | 0.00 | 0.00 | 32 | 1010.5 |
| 20260504202131 | 74 | 187 | 3.5 | 0.0 | 0.00 | 0.00 | 0.00 | 31 | 1010.5 |
| 20260504202030 | 74 | 219 | 3.5 | 0.0 | 0.00 | 0.00 | 0.00 | 32 | 1010.5 |
| 20260504201932 | 74 | 160 | 3.5 | 0.0 | 0.00 | 0.00 | 0.00 | 32 | 1010.5 |
| 20260504201831 | 73 | 216 | 3.5 | 0.0 | 0.00 | 0.00 | 0.00 | 31 | 1010.5 |
| 20260504201731 | 73 | 182 | 4.3 | 0.0 | 0.00 | 0.00 | 0.00 | 31 | 1010.5 |
| 20260504201636 | 74 | 217 | 4.3 | 0.0 | 0.00 | 0.00 | 0.00 | 32 | 1010.5 |
| 20260504201559 | 73 | 181 | 4.3 | 0.0 | 0.00 | 0.00 | 0.00 | 32 | 1010.5 |
| 20260504201434 | 73 | 224 | 4.3 | 0.0 | 0.00 | 0.00 | 0.00 | 32 | 1010.5 |
| 20260504201335 | 73 | 240 | 4.3 | 0.0 | 0.00 | 0.00 | 0.00 | 32 | 1010.6 |
| 20260504201253 | 73 | 138 | 4.3 | 0.0 | 0.00 | 0.00 | 0.00 | 32 | 1010.6 |
| 20260504201132 | 73 | 178 | 4.3 | 0.0 | 0.00 | 0.00 | 0.00 | 32 | 1010.6 |
| 20260504201036 | 73 | 163 | 3.5 | 0.0 | 0.00 | 0.00 | 0.00 | 32 | 1010.6 |
| 20260504200955 | 73 | 240 | 3.5 | 0.0 | 0.00 | 0.00 | 0.00 | 32 | 1010.6 |
| 20260504200836 | 73 | 210 | 3.5 | 0.0 | 0.00 | 0.00 | 0.00 | 31 | 1010.6 |
| 20260504200738 | 73 | 195 | 3.5 | 0.0 | 0.00 | 0.00 | 0.00 | 31 | 1010.6 |
| 20260504200642 | 73 | 242 | 2.6 | 0.0 | 0.00 | 0.00 | 0.00 | 31 | 1010.6 |
| 20260504200604 | 73 | 178 | 2.6 | 0.0 | 0.00 | 0.00 | 0.00 | 31 | 1010.6 |
| 20260504200443 | 73 | 280 | 2.6 | 0.0 | 0.00 | 0.00 | 0.00 | 31 | 1010.6 |
| 20260504200325 | 73 | 170 | 3.5 | 0.0 | 0.00 | 0.00 | 0.00 | 31 | 1010.6 |
| 20260504200225 | 73 | 219 | 3.5 | 0.0 | 0.00 | 0.00 | 0.00 | 31 | 1010.6 |
| 20260504200131 | 73 | 190 | 4.3 | 0.0 | 0.00 | 0.00 | 0.00 | 31 | 1010.6 |
| 20260504200052 | 73 | 187 | 4.3 | 0.0 | 0.00 | 0.00 | 0.00 | 31 | 1010.6 |
| 20260504195932 | 73 | 197 | 4.3 | 0.0 | 0.00 | 0.00 | 0.00 | 31 | 1010.6 |
| 20260504195830 | 73 | 181 | 4.3 | 0.0 | 0.00 | 0.00 | 0.00 | 31 | 1010.9 |
| 20260504195751 | 73 | 168 | 3.5 | 0.0 | 0.00 | 0.00 | 0.00 | 32 | 1010.9 |
| 20260504195628 | 73 | 184 | 4.3 | 0.0 | 0.00 | 0.00 | 0.00 | 31 | 1010.9 |
| 20260504195531 | 73 | 164 | 3.5 | 0.0 | 0.00 | 0.00 | 0.00 | 31 | 1010.9 |
| 20260504195435 | 73 | 145 | 3.5 | 0.0 | 0.00 | 0.00 | 0.00 | 31 | 1010.9 |
| 20260504195358 | 73 | 171 | 3.5 | 0.0 | 0.00 | 0.00 | 0.00 | 31 | 1010.9 |
| 20260504195239 | 73 | 272 | 3.5 | 0.0 | 0.00 | 0.00 | 0.00 | 31 | 1010.9 |
| 20260504195142 | 73 | 173 | 3.5 | 0.0 | 0.00 | 0.00 | 0.00 | 32 | 1010.9 |
| 20260504195041 | 73 | 178 | 3.5 | 0.0 | 0.00 | 0.00 | 0.00 | 31 | 1010.9 |
| 20260504194941 | 73 | 237 | 2.6 | 0.0 | 0.00 | 0.00 | 0.00 | 32 | 1010.9 |
| 20260504194839 | 73 | 149 | 3.5 | 0.0 | 0.00 | 0.00 | 0.00 | 31 | 1010.9 |
| 20260504194724 | 73 | 213 | 3.5 | 0.0 | 0.00 | 0.00 | 0.00 | 32 | 1010.9 |
| 20260504194625 | 73 | 184 | 4.3 | 0.0 | 0.00 | 0.00 | 0.00 | 32 | 1010.9 |
| 20260504194527 | 73 | 181 | 4.3 | 0.0 | 0.00 | 0.00 | 0.00 | 32 | 1010.9 |
| 20260504194426 | 73 | 178 | 4.3 | 0.0 | 0.00 | 0.00 | 0.00 | 31 | 1010.9 |
| 20260504194327 | 73 | 153 | 4.3 | 0.0 | 0.00 | 0.00 | 0.00 | 31 | 1011.0 |
| 20260504194246 | 72 | 149 | 4.3 | 0.0 | 0.00 | 0.00 | 0.00 | 32 | 1011.0 |
| 20260504194131 | 73 | 123 | 4.3 | 0.0 | 0.00 | 0.00 | 0.00 | 32 | 1011.0 |
| 20260504194035 | 73 | 188 | 3.5 | 0.0 | 0.00 | 0.00 | 0.00 | 32 | 1011.0 |
| 20260504193939 | 73 | 237 | 3.5 | 0.0 | 0.00 | 0.00 | 0.00 | 32 | 1011.0 |
| 20260504193840 | 73 | 245 | 4.3 | 0.0 | 0.00 | 0.00 | 0.00 | 32 | 1011.0 |
| 20260504193802 | 73 | 233 | 4.3 | 0.0 | 0.00 | 0.00 | 0.00 | 32 | 1011.0 |
| 20260504193639 | 73 | 199 | 4.3 | 0.0 | 0.00 | 0.00 | 0.00 | 31 | 1011.0 |
| 20260504193545 | 73 | 176 | 4.3 | 0.0 | 0.00 | 0.00 | 0.00 | 32 | 1011.0 |
| 20260504193427 | 73 | 203 | 4.3 | 0.0 | 0.00 | 0.00 | 0.00 | 31 | 1011.0 |
| 20260504193351 | 73 | 188 | 3.5 | 0.0 | 0.00 | 0.00 | 0.00 | 32 | 1011.0 |
| 20260504193231 | 73 | 180 | 3.5 | 0.0 | 0.00 | 0.00 | 0.00 | 32 | 1011.0 |
| 20260504193137 | 73 | 175 | 4.3 | 0.0 | 0.00 | 0.00 | 0.00 | 32 | 1011.0 |
| 20260504193038 | 73 | 91 | 4.3 | 0.0 | 0.00 | 0.00 | 0.00 | 32 | 1011.0 |
| 20260504192938 | 73 | 184 | 5.2 | 0.0 | 0.00 | 0.00 | 0.00 | 31 | 1011.0 |
| 20260504192839 | 73 | 230 | 4.3 | 0.0 | 0.00 | 0.00 | 0.00 | 31 | 1011.1 |
| 20260504192726 | 73 | 192 | 5.2 | 0.0 | 0.00 | 0.00 | 0.00 | 32 | 1011.1 |
| 20260504192627 | 73 | 170 | 4.3 | 0.0 | 0.00 | 0.00 | 0.00 | 33 | 1011.1 |
| 20260504192529 | 73 | 200 | 4.3 | 0.0 | 0.00 | 0.00 | 0.00 | 32 | 1011.1 |
| 20260504192425 | 72 | 170 | 4.3 | 0.0 | 0.00 | 0.00 | 0.00 | 32 | 1011.1 |
| 20260504192327 | 72 | 154 | 5.2 | 0.0 | 0.00 | 0.00 | 0.00 | 32 | 1011.1 |
| 20260504192245 | 72 | 203 | 5.2 | 0.0 | 0.00 | 0.00 | 0.00 | 32 | 1011.1 |
| 20260504192146 | 72 | 192 | 5.2 | 0.0 | 0.00 | 0.00 | 0.00 | 31 | 1011.1 |
| 20260504192028 | 72 | 183 | 4.3 | 0.0 | 0.00 | 0.00 | 0.00 | 31 | 1011.1 |
| 20260504191932 | 72 | 166 | 4.3 | 0.0 | 0.00 | 0.00 | 0.00 | 32 | 1011.1 |
| 20260504191829 | 73 | 208 | 4.3 | 0.0 | 0.00 | 0.00 | 0.00 | 31 | 1011.1 |
| 20260504191730 | 73 | 176 | 3.5 | 0.0 | 0.00 | 0.00 | 0.00 | 32 | 1011.1 |
| 20260504191627 | 73 | 193 | 3.5 | 0.0 | 0.00 | 0.00 | 0.00 | 32 | 1011.1 |
| 20260504191529 | 73 | 262 | 2.6 | 0.0 | 0.00 | 0.00 | 0.00 | 31 | 1011.1 |
| 20260504191430 | 73 | 282 | 2.6 | 0.0 | 0.00 | 0.00 | 0.00 | 32 | 1011.1 |
| 20260504191331 | 73 | 156 | 2.6 | 0.0 | 0.00 | 0.00 | 0.00 | 32 | 1011.2 |
| 20260504191233 | 73 | 199 | 2.6 | 0.0 | 0.00 | 0.00 | 0.00 | 31 | 1011.2 |
| 20260504191134 | 73 | 205 | 2.6 | 0.0 | 0.00 | 0.00 | 0.00 | 32 | 1011.2 |
| 20260504191055 | 73 | 211 | 2.6 | 0.0 | 0.00 | 0.00 | 0.00 | 32 | 1011.2 |
| 20260504190936 | 73 | 183 | 2.6 | 0.0 | 0.00 | 0.00 | 0.00 | 32 | 1011.2 |
| 20260504190837 | 73 | 233 | 2.6 | 0.0 | 0.00 | 0.00 | 0.00 | 33 | 1011.2 |
| 20260504190737 | 73 | 171 | 3.5 | 0.0 | 0.00 | 0.00 | 0.00 | 33 | 1011.2 |
| 20260504190642 | 73 | 179 | 3.5 | 0.0 | 0.00 | 0.00 | 0.00 | 33 | 1011.2 |
| 20260504190545 | 72 | 172 | 3.5 | 0.0 | 0.00 | 0.00 | 0.00 | 33 | 1011.2 |
| 20260504190506 | 72 | 166 | 3.5 | 0.0 | 0.00 | 0.00 | 0.00 | 33 | 1011.2 |
| 20260504190407 | 72 | 175 | 4.3 | 0.0 | 0.00 | 0.00 | 0.00 | 32 | 1011.2 |
| 20260504190223 | 72 | 215 | 4.3 | 0.0 | 0.00 | 0.00 | 0.00 | 32 | 1011.2 |
| 20260504190128 | 72 | 241 | 4.3 | 0.0 | 0.00 | 0.00 | 0.00 | 33 | 1011.2 |
| 20260504190027 | 72 | 183 | 4.3 | 0.0 | 0.00 | 0.00 | 0.00 | 33 | 1011.2 |
| 20260504185930 | 72 | 157 | 4.3 | 0.0 | 0.00 | 0.00 | 0.00 | 32 | 1011.2 |
| 20260504185832 | 72 | 230 | 3.5 | 0.0 | 0.00 | 0.00 | 0.00 | 32 | 1011.4 |
| 20260504185734 | 72 | 155 | 3.5 | 0.0 | 0.00 | 0.00 | 0.00 | 33 | 1011.4 |
| 20260504185630 | 72 | 161 | 3.5 | 0.0 | 0.00 | 0.00 | 0.00 | 32 | 1011.4 |
| 20260504185552 | 72 | 136 | 4.3 | 0.0 | 0.00 | 0.00 | 0.00 | 32 | 1011.4 |
| 20260504185428 | 72 | 162 | 4.3 | 0.0 | 0.00 | 0.00 | 0.00 | 32 | 1011.4 |
| 20260504185330 | 72 | 217 | 4.3 | 0.0 | 0.00 | 0.00 | 0.00 | 32 | 1011.4 |
| 20260504185232 | 72 | 210 | 3.5 | 0.0 | 0.00 | 0.00 | 0.00 | 32 | 1011.4 |
| 20260504185133 | 73 | 187 | 3.5 | 0.0 | 0.00 | 0.00 | 0.00 | 33 | 1011.4 |
| 20260504185059 | 73 | 174 | 3.5 | 0.0 | 0.00 | 0.00 | 0.00 | 33 | 1011.4 |
| 20260504184942 | 73 | 211 | 3.5 | 0.0 | 0.00 | 0.00 | 0.00 | 32 | 1011.4 |
| 20260504184839 | 73 | 230 | 3.5 | 0.0 | 0.00 | 0.00 | 0.00 | 32 | 1011.4 |
| 20260504184739 | 73 | 250 | 2.6 | 0.0 | 0.00 | 0.00 | 0.00 | 32 | 1011.4 |
| 20260504184638 | 73 | 202 | 2.6 | 0.0 | 0.00 | 0.00 | 0.00 | 32 | 1011.4 |
| 20260504184544 | 73 | 213 | 2.6 | 0.0 | 0.00 | 0.00 | 0.00 | 32 | 1011.4 |
| 20260504184441 | 73 | 211 | 2.6 | 0.0 | 0.00 | 0.00 | 0.00 | 33 | 1011.4 |
| 20260504184344 | 73 | 184 | 3.5 | 0.0 | 0.00 | 0.00 | 0.00 | 34 | 1011.6 |
| 20260504184222 | 72 | 168 | 3.5 | 0.0 | 0.00 | 0.00 | 0.00 | 33 | 1011.6 |
| 20260504184126 | 73 | 177 | 3.5 | 0.0 | 0.00 | 0.00 | 0.00 | 33 | 1011.6 |
| 20260504184028 | 72 | 210 | 3.5 | 0.0 | 0.00 | 0.00 | 0.00 | 34 | 1011.6 |
| 20260504183933 | 72 | 139 | 3.5 | 0.0 | 0.00 | 0.00 | 0.00 | 34 | 1011.6 |
| 20260504183837 | 72 | 122 | 3.5 | 0.0 | 0.00 | 0.00 | 0.00 | 34 | 1011.6 |
| 20260504183759 | 72 | 122 | 3.5 | 0.0 | 0.00 | 0.00 | 0.00 | 33 | 1011.6 |
| 20260504183657 | 72 | 194 | 3.5 | 0.0 | 0.00 | 0.00 | 0.00 | 33 | 1011.6 |
| 20260504183536 | 72 | 227 | 2.6 | 0.0 | 0.00 | 0.00 | 0.00 | 34 | 1011.6 |
| 20260504183434 | 72 | 278 | 2.6 | 0.0 | 0.00 | 0.00 | 0.00 | 34 | 1011.6 |
| 20260504183335 | 72 | 240 | 2.6 | 0.0 | 0.00 | 0.00 | 0.00 | 33 | 1011.6 |
| 20260504183220 | 72 | 190 | 2.6 | 0.0 | 0.00 | 0.00 | 0.00 | 34 | 1011.6 |
| 20260504183126 | 72 | 147 | 2.6 | 0.0 | 0.00 | 0.00 | 0.00 | 34 | 1011.6 |
| 20260504183026 | 72 | 201 | 2.6 | 0.0 | 0.00 | 0.00 | 0.00 | 35 | 1011.6 |
| 20260504182927 | 72 | 227 | 3.5 | 0.0 | 0.00 | 0.00 | 0.00 | 35 | 1011.6 |
| 20260504182829 | 72 | 122 | 3.5 | 0.0 | 0.00 | 0.00 | 0.00 | 35 | 1012.0 |
| 20260504182730 | 72 | 191 | 3.5 | 0.0 | 0.00 | 0.00 | 0.00 | 35 | 1012.0 |
| 20260504182631 | 71 | 157 | 4.3 | 0.0 | 0.00 | 0.00 | 0.00 | 35 | 1012.0 |
| 20260504182532 | 71 | 203 | 5.2 | 0.0 | 0.00 | 0.00 | 0.00 | 35 | 1012.0 |
| 20260504182429 | 71 | 178 | 5.2 | 0.0 | 0.00 | 0.00 | 0.00 | 34 | 1012.0 |
| 20260504182351 | 71 | 284 | 5.2 | 0.0 | 0.00 | 0.00 | 0.00 | 34 | 1012.0 |
| 20260504182233 | 71 | 226 | 5.2 | 0.0 | 0.00 | 0.00 | 0.00 | 34 | 1012.0 |
| 20260504182134 | 71 | 215 | 5.2 | 0.0 | 0.00 | 0.00 | 0.00 | 34 | 1012.0 |
| 20260504182037 | 71 | 194 | 5.2 | 0.0 | 0.00 | 0.00 | 0.00 | 34 | 1012.0 |
| 20260504181941 | 71 | 190 | 4.3 | 0.0 | 0.00 | 0.00 | 0.00 | 34 | 1012.0 |
| 20260504181841 | 71 | 219 | 4.3 | 0.0 | 0.00 | 0.00 | 0.00 | 34 | 1012.0 |
| 20260504181743 | 71 | 180 | 4.3 | 0.0 | 0.00 | 0.00 | 0.00 | 35 | 1012.0 |
| 20260504181644 | 71 | 192 | 4.3 | 0.0 | 0.00 | 0.00 | 0.00 | 35 | 1012.0 |
| 20260504181606 | 72 | 186 | 4.3 | 0.0 | 0.00 | 0.00 | 0.00 | 35 | 1012.0 |
| 20260504181442 | 72 | 155 | 4.3 | 0.0 | 0.00 | 0.00 | 0.00 | 35 | 1012.0 |
| 20260504181344 | 72 | 169 | 4.3 | 0.0 | 0.00 | 0.00 | 0.00 | 35 | 1012.1 |
| 20260504181226 | 72 | 166 | 3.5 | 0.0 | 0.00 | 0.00 | 0.00 | 35 | 1012.1 |
| 20260504181128 | 72 | 249 | 3.5 | 0.0 | 0.00 | 0.00 | 0.00 | 35 | 1012.1 |
| 20260504181027 | 72 | 126 | 3.5 | 0.0 | 0.00 | 0.00 | 0.00 | 35 | 1012.1 |
| 20260504180931 | 72 | 188 | 3.5 | 0.0 | 0.00 | 0.00 | 0.00 | 34 | 1012.1 |
| 20260504180832 | 72 | 264 | 3.5 | 0.0 | 0.00 | 0.00 | 0.00 | 34 | 1012.1 |
| 20260504180732 | 72 | 203 | 3.5 | 0.0 | 0.00 | 0.00 | 0.00 | 34 | 1012.1 |
| 20260504180639 | 72 | 174 | 3.5 | 0.0 | 0.00 | 0.00 | 0.00 | 35 | 1012.1 |
| 20260504180544 | 72 | 200 | 2.6 | 0.0 | 0.00 | 0.00 | 0.00 | 35 | 1012.1 |
| 20260504180421 | 72 | 147 | 3.5 | 0.0 | 0.00 | 0.00 | 0.00 | 34 | 1012.1 |
| 20260504180347 | 72 | 180 | 4.3 | 0.0 | 0.00 | 0.00 | 0.00 | 34 | 1012.1 |
| 20260504180225 | 72 | 197 | 5.2 | 0.0 | 0.00 | 0.00 | 0.00 | 35 | 1012.1 |
| 20260504180146 | 72 | 177 | 4.3 | 0.0 | 0.00 | 0.00 | 0.00 | 35 | 1012.1 |
| 20260504180027 | 72 | 159 | 4.3 | 0.0 | 0.00 | 0.00 | 0.00 | 35 | 1012.1 |
| 20260504175928 | 71 | 205 | 4.3 | 0.0 | 0.00 | 0.00 | 0.00 | 35 | 1012.1 |
| 20260504175826 | 71 | 176 | 4.3 | 0.0 | 0.00 | 0.00 | 0.00 | 34 | 1012.4 |
| 20260504175728 | 71 | 180 | 4.3 | 0.0 | 0.00 | 0.00 | 0.00 | 34 | 1012.4 |
| 20260504175629 | 71 | 226 | 3.5 | 0.0 | 0.00 | 0.00 | 0.00 | 35 | 1012.4 |
| 20260504175555 | 71 | 176 | 3.5 | 0.0 | 0.00 | 0.00 | 0.00 | 35 | 1012.4 |
| 20260504175430 | 71 | 240 | 2.6 | 0.0 | 0.00 | 0.00 | 0.00 | 35 | 1012.4 |
| 20260504175334 | 71 | 151 | 2.6 | 0.0 | 0.00 | 0.00 | 0.00 | 35 | 1012.4 |
| 20260504175235 | 71 | 240 | 2.6 | 0.0 | 0.00 | 0.00 | 0.00 | 35 | 1012.4 |
| 20260504175138 | 71 | 222 | 3.5 | 0.0 | 0.00 | 0.00 | 0.00 | 35 | 1012.4 |
| 20260504175040 | 71 | 159 | 3.5 | 0.0 | 0.00 | 0.00 | 0.00 | 34 | 1012.4 |
| 20260504175001 | 71 | 198 | 4.3 | 0.0 | 0.00 | 0.00 | 0.00 | 35 | 1012.4 |
| 20260504174841 | 71 | 187 | 4.3 | 0.0 | 0.00 | 0.00 | 0.00 | 34 | 1012.4 |
| 20260504174742 | 70 | 267 | 5.2 | 0.0 | 0.00 | 0.00 | 0.00 | 35 | 1012.4 |
| 20260504174624 | 70 | 186 | 5.2 | 0.0 | 0.00 | 0.00 | 0.00 | 35 | 1012.4 |
| 20260504174530 | 70 | 174 | 5.2 | 0.0 | 0.00 | 0.00 | 0.00 | 34 | 1012.4 |
| 20260504174427 | 70 | 242 | 5.2 | 0.0 | 0.00 | 0.00 | 0.00 | 34 | 1012.4 |
| 20260504174348 | 70 | 243 | 5.2 | 0.0 | 0.00 | 0.00 | 0.00 | 34 | 1012.4 |
| 20260504174247 | 70 | 180 | 5.2 | 0.0 | 0.00 | 0.00 | 0.00 | 34 | 1012.4 |
| 20260504174127 | 70 | 169 | 5.2 | 0.0 | 0.00 | 0.00 | 0.00 | 33 | 1012.4 |
| 20260504174046 | 71 | 230 | 4.3 | 0.0 | 0.00 | 0.00 | 0.00 | 34 | 1012.4 |
| 20260504173945 | 71 | 209 | 4.3 | 0.0 | 0.00 | 0.00 | 0.00 | 34 | 1012.4 |
| 20260504173826 | 71 | 211 | 4.3 | 0.0 | 0.00 | 0.00 | 0.00 | 34 | 1012.4 |
| 20260504173727 | 71 | 151 | 3.5 | 0.0 | 0.00 | 0.00 | 0.00 | 34 | 1012.4 |
| 20260504173650 | 71 | 168 | 3.5 | 0.0 | 0.00 | 0.00 | 0.00 | 34 | 1012.4 |
| 20260504173531 | 71 | 169 | 3.5 | 0.0 | 0.00 | 0.00 | 0.00 | 34 | 1012.4 |
| 20260504173427 | 71 | 182 | 3.5 | 0.0 | 0.00 | 0.00 | 0.00 | 34 | 1012.4 |
| 20260504173327 | 71 | 198 | 3.5 | 0.0 | 0.00 | 0.00 | 0.00 | 34 | 1012.4 |
| 20260504173226 | 71 | 286 | 3.5 | 0.0 | 0.00 | 0.00 | 0.00 | 35 | 1012.4 |
| 20260504173131 | 71 | 177 | 3.5 | 0.0 | 0.00 | 0.00 | 0.00 | 35 | 1012.4 |
| 20260504173030 | 71 | 191 | 3.5 | 0.0 | 0.00 | 0.00 | 0.00 | 34 | 1012.4 |
| 20260504172930 | 71 | 226 | 3.5 | 0.0 | 0.00 | 0.00 | 0.00 | 35 | 1012.4 |
| 20260504172831 | 70 | 143 | 2.6 | 0.0 | 0.00 | 0.00 | 0.00 | 35 | 1012.7 |
| 20260504172733 | 70 | 296 | 3.5 | 0.0 | 0.00 | 0.00 | 0.00 | 34 | 1012.7 |
| 20260504172655 | 70 | 278 | 3.5 | 0.0 | 0.00 | 0.00 | 0.00 | 34 | 1012.7 |
| 20260504172556 | 71 | 264 | 3.5 | 0.0 | 0.00 | 0.00 | 0.00 | 34 | 1012.7 |
| 20260504172439 | 71 | 174 | 3.5 | 0.0 | 0.00 | 0.00 | 0.00 | 34 | 1012.7 |
| 20260504172340 | 71 | 155 | 3.5 | 0.0 | 0.00 | 0.00 | 0.00 | 34 | 1012.7 |
| 20260504172301 | 71 | 251 | 3.5 | 0.0 | 0.00 | 0.00 | 0.00 | 35 | 1012.7 |
| 20260504172141 | 71 | 222 | 4.3 | 0.0 | 0.00 | 0.00 | 0.00 | 34 | 1012.7 |
| 20260504172040 | 70 | 176 | 4.3 | 0.0 | 0.00 | 0.00 | 0.00 | 35 | 1012.7 |
| 20260504171941 | 70 | 176 | 4.3 | 0.0 | 0.00 | 0.00 | 0.00 | 35 | 1012.7 |
| 20260504171839 | 70 | 223 | 4.3 | 0.0 | 0.00 | 0.00 | 0.00 | 35 | 1012.7 |
| 20260504171745 | 70 | 175 | 4.3 | 0.0 | 0.00 | 0.00 | 0.00 | 35 | 1012.7 |
| 20260504171643 | 70 | 138 | 5.2 | 0.0 | 0.00 | 0.00 | 0.00 | 35 | 1012.7 |
| 20260504171545 | 70 | 182 | 4.3 | 0.0 | 0.00 | 0.00 | 0.00 | 35 | 1012.7 |
| 20260504171425 | 70 | 163 | 4.3 | 0.0 | 0.00 | 0.00 | 0.00 | 35 | 1012.7 |
| 20260504171326 | 70 | 227 | 4.3 | 0.0 | 0.00 | 0.00 | 0.00 | 35 | 1012.8 |
| 20260504171247 | 70 | 191 | 4.3 | 0.0 | 0.00 | 0.00 | 0.00 | 35 | 1012.8 |
| 20260504171207 | 70 | 194 | 4.3 | 0.0 | 0.00 | 0.00 | 0.00 | 35 | 1012.8 |
| 20260504171028 | 70 | 198 | 3.5 | 0.0 | 0.00 | 0.00 | 0.00 | 35 | 1012.8 |
| 20260504170927 | 70 | 201 | 3.5 | 0.0 | 0.00 | 0.00 | 0.00 | 35 | 1012.8 |
| 20260504170825 | 70 | 203 | 3.5 | 0.0 | 0.00 | 0.00 | 0.00 | 35 | 1012.8 |
| 20260504170746 | 70 | 263 | 3.5 | 0.0 | 0.00 | 0.00 | 0.00 | 35 | 1012.8 |
| 20260504170643 | 70 | 261 | 3.5 | 0.0 | 0.00 | 0.00 | 0.00 | 35 | 1012.8 |
| 20260504170545 | 70 | 220 | 3.5 | 0.0 | 0.00 | 0.00 | 0.00 | 35 | 1012.8 |
| 20260504170426 | 70 | 228 | 4.3 | 0.0 | 0.00 | 0.00 | 0.00 | 35 | 1012.8 |
| 20260504170349 | 70 | 165 | 4.3 | 0.0 | 0.00 | 0.00 | 0.00 | 35 | 1012.8 |
| 20260504170226 | 70 | 176 | 4.3 | 0.0 | 0.00 | 0.00 | 0.00 | 35 | 1012.8 |
| 20260504170148 | 70 | 284 | 4.3 | 0.0 | 0.00 | 0.00 | 0.00 | 35 | 1012.8 |
| 20260504160336 | 67 | 220 | 3.5 | 0.0 | 0.00 | 0.00 | 0.00 | 38 | 1013.8 |
| 20260504160239 | 67 | 217 | 3.5 | 0.0 | 0.00 | 0.00 | 0.00 | 39 | 1013.8 |
| 20260504160140 | 67 | 166 | 4.3 | 0.0 | 0.00 | 0.00 | 0.00 | 39 | 1013.8 |
| 20260504151135 | 66 | 194 | 3.5 | 0.0 | 0.00 | 0.00 | 0.00 | 43 | 1014.3 |
| 20260504151057 | 66 | 149 | 3.5 | 0.0 | 0.00 | 0.00 | 0.00 | 43 | 1014.3 |
| 20260504150956 | 66 | 168 | 2.6 | 0.0 | 0.00 | 0.00 | 0.00 | 43 | 1014.3 |
| 20260504150834 | 66 | 174 | 3.5 | 0.0 | 0.00 | 0.00 | 0.00 | 43 | 1014.3 |
| 20260504150735 | 66 | 189 | 2.6 | 0.0 | 0.00 | 0.00 | 0.00 | 44 | 1014.3 |
| 20260504150638 | 66 | 184 | 2.6 | 0.0 | 0.00 | 0.00 | 0.00 | 44 | 1014.3 |
| 20260504150539 | 66 | 164 | 1.7 | 0.0 | 0.00 | 0.00 | 0.00 | 44 | 1014.3 |
| 20260504150441 | 66 | 209 | 1.7 | 0.0 | 0.00 | 0.00 | 0.00 | 44 | 1014.3 |
| 20260504150405 | 66 | 235 | 2.6 | 0.0 | 0.00 | 0.00 | 0.00 | 45 | 1014.3 |
| 20260504150242 | 66 | 177 | 2.6 | 0.0 | 0.00 | 0.00 | 0.00 | 45 | 1014.3 |
| 20260504150144 | 65 | 138 | 3.5 | 0.0 | 0.00 | 0.00 | 0.00 | 45 | 1014.3 |
| 20260504141332 | 63 | 189 | 5.2 | 0.0 | 0.00 | 0.00 | 0.00 | 47 | 1014.5 |
| 20260504141233 | 63 | 205 | 5.2 | 0.0 | 0.00 | 0.00 | 0.00 | 47 | 1014.5 |
| 20260504141136 | 63 | 112 | 5.2 | 0.0 | 0.00 | 0.00 | 0.00 | 47 | 1014.5 |
| 20260504141038 | 63 | 185 | 4.3 | 0.0 | 0.00 | 0.00 | 0.00 | 47 | 1014.5 |
| 20260504140939 | 63 | 188 | 5.2 | 0.0 | 0.00 | 0.00 | 0.00 | 47 | 1014.5 |
| 20260504140835 | 63 | 203 | 5.2 | 0.0 | 0.00 | 0.00 | 0.00 | 47 | 1014.5 |
| 20260504140737 | 63 | 170 | 5.2 | 0.0 | 0.00 | 0.00 | 0.00 | 47 | 1014.5 |
| 20260504140634 | 63 | 186 | 5.2 | 0.0 | 0.00 | 0.00 | 0.00 | 47 | 1014.5 |
| 20260504140537 | 63 | 204 | 4.3 | 0.0 | 0.00 | 0.00 | 0.00 | 48 | 1014.5 |
| 20260504140438 | 63 | 230 | 4.3 | 0.0 | 0.00 | 0.00 | 0.00 | 49 | 1014.5 |
| 20260504140339 | 63 | 217 | 4.3 | 0.0 | 0.00 | 0.00 | 0.00 | 49 | 1014.5 |
| 20260504140304 | 62 | 207 | 4.3 | 0.0 | 0.00 | 0.00 | 0.00 | 49 | 1014.5 |
| 20260504140144 | 62 | 168 | 5.2 | 0.0 | 0.00 | 0.00 | 0.00 | 48 | 1014.5 |
| 20260504140106 | 62 | 165 | 4.3 | 0.0 | 0.00 | 0.00 | 0.00 | 48 | 1014.5 |
| 20260504130732 | 60 | 178 | 5.2 | 0.0 | 0.00 | 0.00 | 0.00 | 55 | 1015.3 |
| 20260504130630 | 60 | 171 | 5.2 | 0.0 | 0.00 | 0.00 | 0.00 | 56 | 1015.3 |
| 20260504130534 | 60 | 177 | 6.1 | 0.0 | 0.00 | 0.00 | 0.00 | 56 | 1015.3 |
| 20260504130431 | 60 | 178 | 6.1 | 0.0 | 0.00 | 0.00 | 0.00 | 56 | 1015.3 |
| 20260504130331 | 60 | 211 | 6.1 | 0.0 | 0.00 | 0.00 | 0.00 | 55 | 1015.3 |
| 20260504130250 | 60 | 250 | 5.2 | 0.0 | 0.00 | 0.00 | 0.00 | 56 | 1015.3 |
| 20260504130137 | 60 | 170 | 5.2 | 0.0 | 0.00 | 0.00 | 0.00 | 56 | 1015.3 |
| 20260504120224 | 56 | 217 | 3.5 | 0.0 | 0.00 | 0.00 | 0.00 | 67 | 1015.4 |
| 20260504120130 | 56 | 209 | 3.5 | 0.0 | 0.00 | 0.00 | 0.00 | 67 | 1015.4 |
| 20260504110629 | 50 | 178 | 0.0 | 0.0 | 0.00 | 0.00 | 0.00 | 70 | 1015.8 |
| 20260504110552 | 50 | 178 | 0.0 | 0.0 | 0.00 | 0.00 | 0.00 | 70 | 1015.8 |
| 20260504110427 | 50 | 177 | 0.0 | 0.0 | 0.00 | 0.00 | 0.00 | 70 | 1015.8 |
| 20260504110328 | 50 | 172 | 0.0 | 0.0 | 0.00 | 0.00 | 0.00 | 70 | 1015.8 |
| 20260504110230 | 50 | 171 | 0.0 | 0.0 | 0.00 | 0.00 | 0.00 | 70 | 1015.8 |
| 20260504110131 | 50 | 168 | 0.0 | 0.0 | 0.00 | 0.00 | 0.00 | 70 | 1015.8 |
| 20260504100556 | 48 | 172 | 0.0 | 0.0 | 0.00 | 0.00 | 0.00 | 72 | 1015.6 |
| 20260504100455 | 48 | 172 | 0.0 | 0.0 | 0.00 | 0.00 | 0.00 | 72 | 1015.6 |
| 20260504100336 | 48 | 172 | 0.0 | 0.0 | 0.00 | 0.00 | 0.00 | 72 | 1015.6 |
| 20260504100242 | 47 | 171 | 0.0 | 0.0 | 0.00 | 0.00 | 0.00 | 72 | 1015.6 |
| 20260504100204 | 47 | 171 | 0.0 | 0.0 | 0.00 | 0.00 | 0.00 | 72 | 1015.6 |
| 20260504090142 | 47 | 172 | 0.0 | 0.0 | 0.00 | 0.00 | 0.00 | 69 | 1015.3 |
| 20260504081935 | 48 | 165 | 0.0 | 0.0 | 0.00 | 0.00 | 0.00 | 63 | 1015.3 |
| 20260504081841 | 48 | 165 | 0.0 | 0.0 | 0.00 | 0.00 | 0.00 | 63 | 1015.3 |
| 20260504081802 | 48 | 165 | 0.0 | 0.0 | 0.00 | 0.00 | 0.00 | 63 | 1015.3 |
| 20260504081643 | 48 | 167 | 0.0 | 0.0 | 0.00 | 0.00 | 0.00 | 63 | 1015.3 |
| 20260504081527 | 48 | 172 | 0.0 | 0.0 | 0.00 | 0.00 | 0.00 | 63 | 1015.3 |
| 20260504081428 | 48 | 174 | 0.9 | 0.0 | 0.00 | 0.00 | 0.00 | 63 | 1015.3 |
| 20260504081333 | 48 | 166 | 0.9 | 0.0 | 0.00 | 0.00 | 0.00 | 62 | 1015.3 |
| 20260504081252 | 48 | 165 | 0.9 | 0.0 | 0.00 | 0.00 | 0.00 | 62 | 1015.3 |
| 20260504081131 | 48 | 164 | 0.9 | 0.0 | 0.00 | 0.00 | 0.00 | 62 | 1015.3 |
| 20260504081030 | 48 | 174 | 0.9 | 0.0 | 0.00 | 0.00 | 0.00 | 62 | 1015.3 |
| 20260504080929 | 48 | 174 | 0.9 | 0.0 | 0.00 | 0.00 | 0.00 | 62 | 1015.3 |
| 20260504080852 | 48 | 174 | 0.0 | 0.0 | 0.00 | 0.00 | 0.00 | 62 | 1015.3 |
| 20260504080732 | 48 | 155 | 0.0 | 0.0 | 0.00 | 0.00 | 0.00 | 62 | 1015.3 |
| 20260504080635 | 48 | 162 | 0.0 | 0.0 | 0.00 | 0.00 | 0.00 | 62 | 1015.3 |
| 20260504080538 | 48 | 190 | 0.0 | 0.0 | 0.00 | 0.00 | 0.00 | 61 | 1015.3 |
| 20260504080435 | 48 | 185 | 0.0 | 0.0 | 0.00 | 0.00 | 0.00 | 61 | 1015.3 |
| 20260504080340 | 48 | 180 | 0.0 | 0.0 | 0.00 | 0.00 | 0.00 | 61 | 1015.3 |
| 20260504080238 | 48 | 178 | 0.0 | 0.0 | 0.00 | 0.00 | 0.00 | 61 | 1015.3 |
| 20260504080139 | 48 | 179 | 0.0 | 0.0 | 0.00 | 0.00 | 0.00 | 60 | 1015.3 |
| 20260504070358 | 48 | 203 | 0.0 | 0.0 | 0.00 | 0.00 | 0.00 | 60 | 1014.9 |
| 20260504070239 | 48 | 203 | 0.0 | 0.0 | 0.00 | 0.00 | 0.00 | 60 | 1014.9 |
| 20260504070140 | 48 | 203 | 0.0 | 0.0 | 0.00 | 0.00 | 0.00 | 60 | 1014.9 |
| 20260504060133 | 49 | 199 | 0.0 | 0.0 | 0.00 | 0.00 | 0.00 | 57 | 1014.8 |
| 20260504050734 | 50 | 181 | 0.0 | 0.0 | 0.00 | 0.00 | 0.00 | 55 | 1014.7 |
| 20260504050631 | 50 | 204 | 0.0 | 0.0 | 0.00 | 0.00 | 0.00 | 55 | 1014.7 |
| 20260504050537 | 50 | 205 | 0.0 | 0.0 | 0.00 | 0.00 | 0.00 | 55 | 1014.7 |
| 20260504050441 | 50 | 205 | 0.0 | 0.0 | 0.00 | 0.00 | 0.00 | 55 | 1014.7 |
| 20260504050402 | 50 | 205 | 0.0 | 0.0 | 0.00 | 0.00 | 0.00 | 55 | 1014.7 |
| 20260504050224 | 50 | 188 | 0.0 | 0.0 | 0.00 | 0.00 | 0.00 | 55 | 1014.7 |
| 20260504050125 | 50 | 189 | 0.0 | 0.0 | 0.00 | 0.00 | 0.00 | 56 | 1014.7 |
| 20260504045932 | 50 | 207 | 0.0 | 0.0 | 0.00 | 0.00 | 0.00 | 55 | 1014.7 |
| 20260504045834 | 50 | 208 | 0.0 | 0.0 | 0.00 | 0.00 | 0.00 | 55 | 1014.6 |
| 20260504045736 | 50 | 207 | 0.0 | 0.0 | 0.00 | 0.00 | 0.00 | 55 | 1014.6 |
| 20260504045633 | 50 | 207 | 0.0 | 0.0 | 0.00 | 0.00 | 0.00 | 55 | 1014.6 |
| 20260504045534 | 50 | 208 | 0.0 | 0.0 | 0.00 | 0.00 | 0.00 | 55 | 1014.6 |
| 20260504045432 | 50 | 201 | 0.0 | 0.0 | 0.00 | 0.00 | 0.00 | 55 | 1014.6 |
| 20260504045333 | 50 | 175 | 0.0 | 0.0 | 0.00 | 0.00 | 0.00 | 55 | 1014.6 |
| 20260504045236 | 50 | 174 | 0.0 | 0.0 | 0.00 | 0.00 | 0.00 | 55 | 1014.6 |
| 20260504045138 | 50 | 179 | 0.0 | 0.0 | 0.00 | 0.00 | 0.00 | 55 | 1014.6 |
| 20260504045036 | 50 | 199 | 0.0 | 0.0 | 0.00 | 0.00 | 0.00 | 56 | 1014.6 |
| 20260504044937 | 50 | 190 | 0.0 | 0.0 | 0.00 | 0.00 | 0.00 | 56 | 1014.6 |
| 20260504044838 | 50 | 190 | 0.0 | 0.0 | 0.00 | 0.00 | 0.00 | 56 | 1014.6 |
| 20260504044758 | 50 | 190 | 0.0 | 0.0 | 0.00 | 0.00 | 0.00 | 56 | 1014.6 |
| 20260504044639 | 50 | 190 | 0.0 | 0.0 | 0.00 | 0.00 | 0.00 | 56 | 1014.6 |
| 20260504044546 | 50 | 190 | 0.0 | 0.0 | 0.00 | 0.00 | 0.00 | 55 | 1014.6 |
| 20260504044443 | 50 | 190 | 0.0 | 0.0 | 0.00 | 0.00 | 0.00 | 56 | 1014.6 |
| 20260504044344 | 50 | 190 | 0.0 | 0.0 | 0.00 | 0.00 | 0.00 | 56 | 1014.3 |
| 20260504044225 | 50 | 190 | 0.0 | 0.0 | 0.00 | 0.00 | 0.00 | 55 | 1014.3 |
| 20260504044126 | 50 | 190 | 0.0 | 0.0 | 0.00 | 0.00 | 0.00 | 55 | 1014.3 |
| 20260504044029 | 50 | 190 | 0.0 | 0.0 | 0.00 | 0.00 | 0.00 | 55 | 1014.3 |
| 20260504043933 | 50 | 190 | 0.0 | 0.0 | 0.00 | 0.00 | 0.00 | 55 | 1014.3 |
| 20260504043831 | 50 | 190 | 0.0 | 0.0 | 0.00 | 0.00 | 0.00 | 55 | 1014.3 |
| 20260504043734 | 50 | 190 | 0.0 | 0.0 | 0.00 | 0.00 | 0.00 | 55 | 1014.3 |
| 20260504043632 | 50 | 190 | 0.0 | 0.0 | 0.00 | 0.00 | 0.00 | 55 | 1014.3 |
| 20260504043534 | 50 | 190 | 0.0 | 0.0 | 0.00 | 0.00 | 0.00 | 55 | 1014.3 |
| 20260504043435 | 50 | 159 | 0.0 | 0.0 | 0.00 | 0.00 | 0.00 | 55 | 1014.3 |
| 20260504043340 | 50 | 159 | 0.0 | 0.0 | 0.00 | 0.00 | 0.00 | 55 | 1014.3 |
| 20260504043302 | 50 | 159 | 0.0 | 0.0 | 0.00 | 0.00 | 0.00 | 55 | 1014.3 |
| 20260504043203 | 50 | 159 | 0.0 | 0.0 | 0.00 | 0.00 | 0.00 | 55 | 1014.3 |
| 20260504043041 | 50 | 159 | 0.0 | 0.0 | 0.00 | 0.00 | 0.00 | 55 | 1014.3 |
| 20260504042942 | 50 | 159 | 0.0 | 0.0 | 0.00 | 0.00 | 0.00 | 55 | 1014.3 |
| 20260504042903 | 50 | 159 | 0.0 | 0.0 | 0.00 | 0.00 | 0.00 | 55 | 1014.2 |
| 20260504042743 | 50 | 159 | 0.0 | 0.0 | 0.00 | 0.00 | 0.00 | 55 | 1014.2 |
| 20260504042641 | 50 | 159 | 0.0 | 0.0 | 0.00 | 0.00 | 0.00 | 55 | 1014.2 |
| 20260504042527 | 50 | 159 | 0.0 | 0.0 | 0.00 | 0.00 | 0.00 | 55 | 1014.2 |
| 20260504042428 | 50 | 159 | 0.0 | 0.0 | 0.00 | 0.00 | 0.00 | 55 | 1014.2 |
| 20260504042349 | 50 | 159 | 0.0 | 0.0 | 0.00 | 0.00 | 0.00 | 55 | 1014.2 |
| 20260504042226 | 50 | 159 | 0.0 | 0.0 | 0.00 | 0.00 | 0.00 | 55 | 1014.2 |
| 20260504042127 | 50 | 159 | 0.0 | 0.0 | 0.00 | 0.00 | 0.00 | 55 | 1014.2 |
| 20260504042031 | 50 | 159 | 0.0 | 0.0 | 0.00 | 0.00 | 0.00 | 55 | 1014.2 |
| 20260504041931 | 50 | 159 | 0.0 | 0.0 | 0.00 | 0.00 | 0.00 | 55 | 1014.2 |
| 20260504041834 | 50 | 159 | 0.0 | 0.0 | 0.00 | 0.00 | 0.00 | 55 | 1014.2 |
| 20260504041736 | 50 | 159 | 0.0 | 0.0 | 0.00 | 0.00 | 0.00 | 55 | 1014.2 |
| 20260504041634 | 50 | 159 | 0.0 | 0.0 | 0.00 | 0.00 | 0.00 | 54 | 1014.2 |
| 20260504041536 | 50 | 159 | 0.0 | 0.0 | 0.00 | 0.00 | 0.00 | 55 | 1014.2 |
| 20260504041436 | 50 | 159 | 0.0 | 0.0 | 0.00 | 0.00 | 0.00 | 54 | 1014.2 |
| 20260504041359 | 50 | 159 | 0.0 | 0.0 | 0.00 | 0.00 | 0.00 | 54 | 1014.2 |
| 20260504041238 | 50 | 159 | 0.0 | 0.0 | 0.00 | 0.00 | 0.00 | 54 | 1014.2 |
| 20260504041204 | 50 | 159 | 0.0 | 0.0 | 0.00 | 0.00 | 0.00 | 54 | 1014.2 |
| 20260504041045 | 51 | 159 | 0.0 | 0.0 | 0.00 | 0.00 | 0.00 | 54 | 1014.2 |
| 20260504040926 | 51 | 159 | 0.0 | 0.0 | 0.00 | 0.00 | 0.00 | 54 | 1014.2 |
| 20260504040828 | 51 | 159 | 0.0 | 0.0 | 0.00 | 0.00 | 0.00 | 54 | 1014.2 |
| 20260504040730 | 51 | 159 | 0.0 | 0.0 | 0.00 | 0.00 | 0.00 | 54 | 1014.2 |
| 20260504040631 | 51 | 159 | 0.0 | 0.0 | 0.00 | 0.00 | 0.00 | 54 | 1014.2 |
| 20260504040551 | 51 | 159 | 0.0 | 0.0 | 0.00 | 0.00 | 0.00 | 54 | 1014.2 |
| 20260504040438 | 51 | 159 | 0.0 | 0.0 | 0.00 | 0.00 | 0.00 | 53 | 1014.2 |
| 20260504040342 | 51 | 159 | 0.0 | 0.0 | 0.00 | 0.00 | 0.00 | 53 | 1014.2 |
| 20260504040224 | 51 | 159 | 0.0 | 0.0 | 0.00 | 0.00 | 0.00 | 54 | 1014.2 |
| 20260504040147 | 51 | 159 | 0.0 | 0.0 | 0.00 | 0.00 | 0.00 | 53 | 1014.2 |
| 20260504040044 | 51 | 159 | 0.0 | 0.0 | 0.00 | 0.00 | 0.00 | 53 | 1014.2 |
| 20260504035930 | 51 | 159 | 0.0 | 0.0 | 0.00 | 0.00 | 0.00 | 53 | 1014.2 |
| 20260504035851 | 51 | 159 | 0.0 | 0.0 | 0.00 | 0.00 | 0.00 | 53 | 1014.0 |
| 20260504035730 | 51 | 159 | 0.0 | 0.0 | 0.00 | 0.00 | 0.00 | 53 | 1014.0 |
| 20260504035628 | 51 | 159 | 0.0 | 0.0 | 0.00 | 0.00 | 0.00 | 53 | 1014.0 |
| 20260504035531 | 51 | 159 | 0.0 | 0.0 | 0.00 | 0.00 | 0.00 | 53 | 1014.0 |
| 20260504035428 | 51 | 159 | 0.0 | 0.0 | 0.00 | 0.00 | 0.00 | 52 | 1014.0 |
| 20260504035351 | 51 | 159 | 0.0 | 0.0 | 0.00 | 0.00 | 0.00 | 53 | 1014.0 |
| 20260504035247 | 51 | 159 | 0.0 | 0.0 | 0.00 | 0.00 | 0.00 | 52 | 1014.0 |
| 20260504035133 | 51 | 159 | 0.0 | 0.0 | 0.00 | 0.00 | 0.00 | 52 | 1014.0 |
| 20260504035032 | 51 | 159 | 0.0 | 0.0 | 0.00 | 0.00 | 0.00 | 52 | 1014.0 |
| 20260504034931 | 51 | 159 | 0.0 | 0.0 | 0.00 | 0.00 | 0.00 | 52 | 1014.0 |
| 20260504034832 | 51 | 159 | 0.0 | 0.0 | 0.00 | 0.00 | 0.00 | 52 | 1014.0 |
| 20260504034734 | 51 | 159 | 0.0 | 0.0 | 0.00 | 0.00 | 0.00 | 52 | 1014.0 |
| 20260504034633 | 51 | 159 | 0.0 | 0.0 | 0.00 | 0.00 | 0.00 | 52 | 1014.0 |
| 20260504034535 | 51 | 159 | 0.0 | 0.0 | 0.00 | 0.00 | 0.00 | 52 | 1014.0 |
| 20260504034455 | 51 | 159 | 0.0 | 0.0 | 0.00 | 0.00 | 0.00 | 52 | 1014.0 |
| 20260504034335 | 51 | 159 | 0.0 | 0.0 | 0.00 | 0.00 | 0.00 | 52 | 1014.0 |
| 20260504034233 | 51 | 159 | 0.0 | 0.0 | 0.00 | 0.00 | 0.00 | 51 | 1014.0 |
| 20260504034135 | 51 | 159 | 0.0 | 0.0 | 0.00 | 0.00 | 0.00 | 51 | 1014.0 |
| 20260504034038 | 51 | 158 | 0.0 | 0.0 | 0.00 | 0.00 | 0.00 | 52 | 1014.0 |
| 20260504033938 | 51 | 158 | 0.0 | 0.0 | 0.00 | 0.00 | 0.00 | 52 | 1014.0 |
| 20260504033836 | 51 | 158 | 0.0 | 0.0 | 0.00 | 0.00 | 0.00 | 52 | 1014.0 |
| 20260504033742 | 51 | 158 | 0.0 | 0.0 | 0.00 | 0.00 | 0.00 | 51 | 1014.0 |
| 20260504033643 | 52 | 158 | 0.0 | 0.0 | 0.00 | 0.00 | 0.00 | 51 | 1014.0 |
| 20260504033546 | 51 | 158 | 0.0 | 0.0 | 0.00 | 0.00 | 0.00 | 51 | 1014.0 |
| 20260504033423 | 52 | 158 | 0.0 | 0.0 | 0.00 | 0.00 | 0.00 | 51 | 1014.0 |
| 20260504033325 | 52 | 158 | 0.0 | 0.0 | 0.00 | 0.00 | 0.00 | 51 | 1014.0 |
| 20260504033227 | 52 | 158 | 0.0 | 0.0 | 0.00 | 0.00 | 0.00 | 51 | 1014.0 |
| 20260504033132 | 52 | 158 | 0.0 | 0.0 | 0.00 | 0.00 | 0.00 | 50 | 1014.0 |
| 20260504033058 | 52 | 158 | 0.0 | 0.0 | 0.00 | 0.00 | 0.00 | 50 | 1014.0 |
| 20260504032939 | 52 | 157 | 0.0 | 0.0 | 0.00 | 0.00 | 0.00 | 50 | 1014.0 |
| 20260504032839 | 52 | 185 | 0.0 | 0.0 | 0.00 | 0.00 | 0.00 | 51 | 1013.8 |
| 20260504032742 | 52 | 185 | 0.0 | 0.0 | 0.00 | 0.00 | 0.00 | 50 | 1013.8 |
| 20260504032643 | 52 | 186 | 0.0 | 0.0 | 0.00 | 0.00 | 0.00 | 50 | 1013.8 |
| 20260504032605 | 52 | 186 | 0.0 | 0.0 | 0.00 | 0.00 | 0.00 | 50 | 1013.8 |
| 20260504032428 | 52 | 186 | 0.0 | 0.0 | 0.00 | 0.00 | 0.00 | 50 | 1013.8 |
| 20260504032349 | 52 | 186 | 0.0 | 0.0 | 0.00 | 0.00 | 0.00 | 50 | 1013.8 |
| 20260504032225 | 52 | 186 | 0.0 | 0.0 | 0.00 | 0.00 | 0.00 | 50 | 1013.8 |
| 20260504032127 | 52 | 186 | 0.0 | 0.0 | 0.00 | 0.00 | 0.00 | 50 | 1013.8 |
| 20260504032026 | 52 | 185 | 0.0 | 0.0 | 0.00 | 0.00 | 0.00 | 50 | 1013.8 |
| 20260504031929 | 52 | 186 | 0.0 | 0.0 | 0.00 | 0.00 | 0.00 | 50 | 1013.8 |
| 20260504031847 | 52 | 185 | 0.0 | 0.0 | 0.00 | 0.00 | 0.00 | 50 | 1013.8 |
| 20260504031748 | 52 | 185 | 0.0 | 0.0 | 0.00 | 0.00 | 0.00 | 49 | 1013.8 |
| 20260504031630 | 52 | 186 | 0.0 | 0.0 | 0.00 | 0.00 | 0.00 | 49 | 1013.8 |
| 20260504031533 | 52 | 185 | 0.0 | 0.0 | 0.00 | 0.00 | 0.00 | 49 | 1013.8 |
| 20260504031430 | 52 | 185 | 0.0 | 0.0 | 0.00 | 0.00 | 0.00 | 49 | 1013.8 |
| 20260504031331 | 52 | 186 | 0.0 | 0.0 | 0.00 | 0.00 | 0.00 | 49 | 1013.8 |
| 20260504031252 | 52 | 186 | 0.0 | 0.0 | 0.00 | 0.00 | 0.00 | 49 | 1013.8 |
| 20260504031153 | 52 | 185 | 0.0 | 0.0 | 0.00 | 0.00 | 0.00 | 49 | 1013.8 |
| 20260504031052 | 52 | 185 | 0.0 | 0.0 | 0.00 | 0.00 | 0.00 | 49 | 1013.8 |
| 20260504030931 | 52 | 185 | 0.0 | 0.0 | 0.00 | 0.00 | 0.00 | 49 | 1013.8 |
| 20260504030837 | 52 | 185 | 0.0 | 0.0 | 0.00 | 0.00 | 0.00 | 49 | 1013.8 |
| 20260504030742 | 52 | 185 | 0.0 | 0.0 | 0.00 | 0.00 | 0.00 | 49 | 1013.8 |
| 20260504030643 | 52 | 185 | 0.0 | 0.0 | 0.00 | 0.00 | 0.00 | 49 | 1013.8 |
| 20260504030526 | 52 | 185 | 0.0 | 0.0 | 0.00 | 0.00 | 0.00 | 49 | 1013.8 |
| 20260504030425 | 52 | 185 | 0.0 | 0.0 | 0.00 | 0.00 | 0.00 | 48 | 1013.8 |
| 20260504030327 | 53 | 185 | 0.0 | 0.0 | 0.00 | 0.00 | 0.00 | 48 | 1013.8 |
| 20260504030229 | 53 | 186 | 0.0 | 0.0 | 0.00 | 0.00 | 0.00 | 48 | 1013.8 |
| 20260504030131 | 53 | 186 | 0.0 | 0.0 | 0.00 | 0.00 | 0.00 | 49 | 1013.8 |
| 20260504030033 | 53 | 186 | 0.0 | 0.0 | 0.00 | 0.00 | 0.00 | 48 | 1013.8 |
| 20260504025936 | 53 | 186 | 0.0 | 0.0 | 0.00 | 0.00 | 0.00 | 48 | 1013.8 |
| 20260504025834 | 53 | 186 | 0.0 | 0.0 | 0.00 | 0.00 | 0.00 | 48 | 1013.8 |
| 20260504025736 | 53 | 186 | 0.0 | 0.0 | 0.00 | 0.00 | 0.00 | 48 | 1013.8 |
| 20260504025637 | 53 | 188 | 0.0 | 0.0 | 0.00 | 0.00 | 0.00 | 48 | 1013.8 |
| 20260504025539 | 53 | 187 | 0.0 | 0.0 | 0.00 | 0.00 | 0.00 | 49 | 1013.8 |
| 20260504025437 | 53 | 186 | 0.0 | 0.0 | 0.00 | 0.00 | 0.00 | 48 | 1013.8 |
| 20260504025338 | 53 | 186 | 0.0 | 0.0 | 0.00 | 0.00 | 0.00 | 48 | 1013.8 |
| 20260504025236 | 53 | 186 | 0.0 | 0.0 | 0.00 | 0.00 | 0.00 | 48 | 1013.8 |
| 20260504025137 | 53 | 187 | 0.0 | 0.0 | 0.00 | 0.00 | 0.00 | 48 | 1013.8 |
| 20260504025040 | 53 | 187 | 0.0 | 0.0 | 0.00 | 0.00 | 0.00 | 48 | 1013.8 |
| 20260504025005 | 53 | 187 | 0.0 | 0.0 | 0.00 | 0.00 | 0.00 | 48 | 1013.8 |
| 20260504024842 | 53 | 187 | 0.0 | 0.0 | 0.00 | 0.00 | 0.00 | 49 | 1013.8 |
| 20260504024743 | 53 | 187 | 0.0 | 0.0 | 0.00 | 0.00 | 0.00 | 48 | 1013.8 |
| 20260504024642 | 53 | 187 | 0.0 | 0.0 | 0.00 | 0.00 | 0.00 | 48 | 1013.8 |
| 20260504024544 | 53 | 187 | 0.0 | 0.0 | 0.00 | 0.00 | 0.00 | 48 | 1013.8 |
| 20260504024440 | 53 | 187 | 0.0 | 0.0 | 0.00 | 0.00 | 0.00 | 48 | 1013.8 |
| 20260504024342 | 53 | 187 | 0.0 | 0.0 | 0.00 | 0.00 | 0.00 | 48 | 1013.9 |
| 20260504024224 | 53 | 187 | 0.0 | 0.0 | 0.00 | 0.00 | 0.00 | 48 | 1013.9 |
| 20260504024126 | 53 | 187 | 0.0 | 0.0 | 0.00 | 0.00 | 0.00 | 47 | 1013.9 |
| 20260504024048 | 53 | 187 | 0.0 | 0.0 | 0.00 | 0.00 | 0.00 | 47 | 1013.9 |
| 20260504023930 | 53 | 188 | 0.0 | 0.0 | 0.00 | 0.00 | 0.00 | 48 | 1013.9 |
| 20260504023828 | 53 | 188 | 0.0 | 0.0 | 0.00 | 0.00 | 0.00 | 48 | 1013.9 |
| 20260504023729 | 53 | 188 | 0.0 | 0.0 | 0.00 | 0.00 | 0.00 | 47 | 1013.9 |
| 20260504023635 | 53 | 188 | 0.0 | 0.0 | 0.00 | 0.00 | 0.00 | 48 | 1013.9 |
| 20260504023557 | 53 | 188 | 0.0 | 0.0 | 0.00 | 0.00 | 0.00 | 48 | 1013.9 |
| 20260504023434 | 53 | 188 | 0.0 | 0.0 | 0.00 | 0.00 | 0.00 | 47 | 1013.9 |
| 20260504023335 | 53 | 188 | 0.0 | 0.0 | 0.00 | 0.00 | 0.00 | 47 | 1013.9 |
| 20260504023233 | 53 | 188 | 0.0 | 0.0 | 0.00 | 0.00 | 0.00 | 47 | 1013.9 |
| 20260504023135 | 53 | 188 | 0.0 | 0.0 | 0.00 | 0.00 | 0.00 | 47 | 1013.9 |
| 20260504023032 | 53 | 206 | 0.0 | 0.0 | 0.00 | 0.00 | 0.00 | 47 | 1013.9 |
| 20260504022937 | 53 | 199 | 0.0 | 0.0 | 0.00 | 0.00 | 0.00 | 47 | 1013.9 |
| 20260504022837 | 53 | 198 | 0.0 | 0.0 | 0.00 | 0.00 | 0.00 | 47 | 1013.8 |
| 20260504022737 | 53 | 198 | 0.0 | 0.0 | 0.00 | 0.00 | 0.00 | 47 | 1013.8 |
| 20260504022635 | 53 | 197 | 0.0 | 0.0 | 0.00 | 0.00 | 0.00 | 47 | 1013.8 |
| 20260504022538 | 53 | 197 | 0.0 | 0.0 | 0.00 | 0.00 | 0.00 | 47 | 1013.8 |
| 20260504022434 | 53 | 197 | 0.0 | 0.0 | 0.00 | 0.00 | 0.00 | 47 | 1013.8 |
| 20260504022336 | 53 | 197 | 0.0 | 0.0 | 0.00 | 0.00 | 0.00 | 47 | 1013.8 |
| 20260504022301 | 53 | 197 | 0.0 | 0.0 | 0.00 | 0.00 | 0.00 | 47 | 1013.8 |
| 20260504022141 | 53 | 197 | 0.0 | 0.0 | 0.00 | 0.00 | 0.00 | 47 | 1013.8 |
| 20260504022039 | 53 | 199 | 0.0 | 0.0 | 0.00 | 0.00 | 0.00 | 47 | 1013.8 |
| 20260504021940 | 53 | 199 | 0.0 | 0.0 | 0.00 | 0.00 | 0.00 | 47 | 1013.8 |
| 20260504021842 | 53 | 199 | 0.0 | 0.0 | 0.00 | 0.00 | 0.00 | 47 | 1013.8 |
| 20260504021808 | 53 | 199 | 0.0 | 0.0 | 0.00 | 0.00 | 0.00 | 47 | 1013.8 |
| 20260504021644 | 53 | 244 | 0.0 | 0.0 | 0.00 | 0.00 | 0.00 | 47 | 1013.8 |
| 20260504021531 | 53 | 244 | 0.0 | 0.0 | 0.00 | 0.00 | 0.00 | 47 | 1013.8 |
| 20260504021447 | 53 | 244 | 0.0 | 0.0 | 0.00 | 0.00 | 0.00 | 47 | 1013.8 |
| 20260504021327 | 53 | 244 | 0.0 | 0.0 | 0.00 | 0.00 | 0.00 | 47 | 1013.7 |
| 20260504021230 | 53 | 244 | 0.0 | 0.0 | 0.00 | 0.00 | 0.00 | 47 | 1013.7 |
| 20260504021131 | 53 | 244 | 0.0 | 0.0 | 0.00 | 0.00 | 0.00 | 47 | 1013.7 |
| 20260504021033 | 53 | 244 | 0.0 | 0.0 | 0.00 | 0.00 | 0.00 | 47 | 1013.7 |
| 20260504020935 | 53 | 244 | 0.0 | 0.0 | 0.00 | 0.00 | 0.00 | 47 | 1013.7 |
| 20260504020836 | 53 | 244 | 0.0 | 0.0 | 0.00 | 0.00 | 0.00 | 46 | 1013.7 |
| 20260504020738 | 53 | 244 | 0.0 | 0.0 | 0.00 | 0.00 | 0.00 | 46 | 1013.7 |
| 20260504020637 | 54 | 244 | 0.0 | 0.0 | 0.00 | 0.00 | 0.00 | 47 | 1013.7 |
| 20260504020538 | 54 | 244 | 0.0 | 0.0 | 0.00 | 0.00 | 0.00 | 47 | 1013.7 |
| 20260504020455 | 54 | 244 | 0.0 | 0.0 | 0.00 | 0.00 | 0.00 | 46 | 1013.7 |
| 20260504020336 | 54 | 244 | 0.0 | 0.0 | 0.00 | 0.00 | 0.00 | 47 | 1013.7 |
| 20260504020301 | 54 | 244 | 0.0 | 0.0 | 0.00 | 0.00 | 0.00 | 46 | 1013.7 |
| 20260504020129 | 54 | 244 | 0.0 | 0.0 | 0.00 | 0.00 | 0.00 | 46 | 1013.7 |
| 20260504020028 | 54 | 244 | 0.0 | 0.0 | 0.00 | 0.00 | 0.00 | 47 | 1013.7 |
| 20260504015929 | 54 | 244 | 0.0 | 0.0 | 0.00 | 0.00 | 0.00 | 47 | 1013.7 |
| 20260504015827 | 54 | 244 | 0.0 | 0.0 | 0.00 | 0.00 | 0.00 | 46 | 1013.7 |
| 20260504015728 | 54 | 244 | 0.0 | 0.0 | 0.00 | 0.00 | 0.00 | 46 | 1013.7 |
| 20260504015629 | 54 | 244 | 0.0 | 0.0 | 0.00 | 0.00 | 0.00 | 45 | 1013.7 |
| 20260504015535 | 54 | 244 | 0.0 | 0.0 | 0.00 | 0.00 | 0.00 | 45 | 1013.7 |
| 20260504015434 | 54 | 244 | 0.0 | 0.0 | 0.00 | 0.00 | 0.00 | 45 | 1013.7 |
| 20260504015335 | 54 | 244 | 0.0 | 0.0 | 0.00 | 0.00 | 0.00 | 46 | 1013.7 |
| 20260504015253 | 54 | 244 | 0.0 | 0.0 | 0.00 | 0.00 | 0.00 | 45 | 1013.7 |
| 20260504015135 | 54 | 244 | 0.0 | 0.0 | 0.00 | 0.00 | 0.00 | 45 | 1013.7 |
| 20260504015033 | 54 | 244 | 0.0 | 0.0 | 0.00 | 0.00 | 0.00 | 44 | 1013.7 |
| 20260504014932 | 54 | 244 | 0.0 | 0.0 | 0.00 | 0.00 | 0.00 | 45 | 1013.7 |
| 20260504014834 | 54 | 244 | 0.0 | 0.0 | 0.00 | 0.00 | 0.00 | 45 | 1013.7 |
| 20260504014735 | 54 | 244 | 0.0 | 0.0 | 0.00 | 0.00 | 0.00 | 44 | 1013.7 |
| 20260504014636 | 54 | 244 | 0.0 | 0.0 | 0.00 | 0.00 | 0.00 | 44 | 1013.7 |
| 20260504014539 | 54 | 244 | 0.0 | 0.0 | 0.00 | 0.00 | 0.00 | 44 | 1013.7 |
| 20260504014434 | 54 | 244 | 0.0 | 0.0 | 0.00 | 0.00 | 0.00 | 44 | 1013.7 |
| 20260504014340 | 55 | 244 | 0.0 | 0.0 | 0.00 | 0.00 | 0.00 | 44 | 1013.6 |
| 20260504014301 | 55 | 244 | 0.0 | 0.0 | 0.00 | 0.00 | 0.00 | 44 | 1013.6 |
| 20260504014129 | 55 | 244 | 0.0 | 0.0 | 0.00 | 0.00 | 0.00 | 43 | 1013.6 |
| 20260504014026 | 55 | 244 | 0.0 | 0.0 | 0.00 | 0.00 | 0.00 | 43 | 1013.6 |
| 20260504013925 | 55 | 244 | 0.0 | 0.0 | 0.00 | 0.00 | 0.00 | 43 | 1013.6 |
| 20260504013827 | 55 | 244 | 0.0 | 0.0 | 0.00 | 0.00 | 0.00 | 44 | 1013.6 |
| 20260504013729 | 55 | 244 | 0.0 | 0.0 | 0.00 | 0.00 | 0.00 | 43 | 1013.6 |
| 20260504013626 | 55 | 244 | 0.0 | 0.0 | 0.00 | 0.00 | 0.00 | 43 | 1013.6 |
| 20260504013532 | 55 | 244 | 0.0 | 0.0 | 0.00 | 0.00 | 0.00 | 43 | 1013.6 |
| 20260504013430 | 55 | 244 | 0.0 | 0.0 | 0.00 | 0.00 | 0.00 | 43 | 1013.6 |
| 20260504013331 | 55 | 244 | 0.0 | 0.0 | 0.00 | 0.00 | 0.00 | 43 | 1013.6 |
| 20260504013229 | 55 | 244 | 0.0 | 0.0 | 0.00 | 0.00 | 0.00 | 43 | 1013.6 |
| 20260504013130 | 55 | 244 | 0.0 | 0.0 | 0.00 | 0.00 | 0.00 | 43 | 1013.6 |
| 20260504013029 | 55 | 244 | 0.0 | 0.0 | 0.00 | 0.00 | 0.00 | 43 | 1013.6 |
| 20260504012928 | 55 | 244 | 0.0 | 0.0 | 0.00 | 0.00 | 0.00 | 43 | 1013.6 |
| 20260504012831 | 55 | 244 | 0.0 | 0.0 | 0.00 | 0.00 | 0.00 | 43 | 1013.2 |
| 20260504012732 | 55 | 244 | 0.0 | 0.0 | 0.00 | 0.00 | 0.00 | 43 | 1013.2 |
| 20260504012631 | 55 | 244 | 0.0 | 0.0 | 0.00 | 0.00 | 0.00 | 43 | 1013.2 |
| 20260504012534 | 55 | 244 | 0.0 | 0.0 | 0.00 | 0.00 | 0.00 | 43 | 1013.2 |
| 20260504012431 | 55 | 244 | 0.0 | 0.0 | 0.00 | 0.00 | 0.00 | 43 | 1013.2 |
| 20260504012336 | 55 | 244 | 0.0 | 0.0 | 0.00 | 0.00 | 0.00 | 43 | 1013.2 |
| 20260504012254 | 55 | 244 | 0.0 | 0.0 | 0.00 | 0.00 | 0.00 | 42 | 1013.2 |
| 20260504012143 | 55 | 244 | 0.0 | 0.0 | 0.00 | 0.00 | 0.00 | 42 | 1013.2 |
| 20260504012045 | 55 | 244 | 0.0 | 0.0 | 0.00 | 0.00 | 0.00 | 42 | 1013.2 |
| 20260504011925 | 55 | 244 | 0.0 | 0.0 | 0.00 | 0.00 | 0.00 | 42 | 1013.2 |
| 20260504011827 | 55 | 244 | 0.0 | 0.0 | 0.00 | 0.00 | 0.00 | 42 | 1013.2 |
| 20260504011729 | 55 | 244 | 0.0 | 0.0 | 0.00 | 0.00 | 0.00 | 42 | 1013.2 |
| 20260504011627 | 55 | 244 | 0.0 | 0.0 | 0.00 | 0.00 | 0.00 | 42 | 1013.2 |
| 20260504011533 | 56 | 244 | 0.0 | 0.0 | 0.00 | 0.00 | 0.00 | 42 | 1013.2 |
| 20260504011437 | 56 | 244 | 0.0 | 0.0 | 0.00 | 0.00 | 0.00 | 42 | 1013.2 |
| 20260504011359 | 56 | 244 | 0.0 | 0.0 | 0.00 | 0.00 | 0.00 | 42 | 1013.1 |
| 20260504011239 | 56 | 244 | 0.0 | 0.0 | 0.00 | 0.00 | 0.00 | 41 | 1013.1 |
| 20260504011158 | 56 | 244 | 0.0 | 0.0 | 0.00 | 0.00 | 0.00 | 41 | 1013.1 |
| 20260504011059 | 56 | 244 | 0.0 | 0.0 | 0.00 | 0.00 | 0.00 | 41 | 1013.1 |
| 20260504010939 | 56 | 244 | 0.0 | 0.0 | 0.00 | 0.00 | 0.00 | 41 | 1013.1 |
| 20260504010837 | 56 | 244 | 0.0 | 0.0 | 0.00 | 0.00 | 0.00 | 41 | 1013.1 |
| 20260504010742 | 56 | 244 | 0.0 | 0.0 | 0.00 | 0.00 | 0.00 | 41 | 1013.1 |
| 20260504010643 | 56 | 244 | 0.0 | 0.0 | 0.00 | 0.00 | 0.00 | 41 | 1013.1 |
| 20260504010525 | 56 | 244 | 0.0 | 0.0 | 0.00 | 0.00 | 0.00 | 41 | 1013.1 |
| 20260504010446 | 56 | 244 | 0.0 | 0.0 | 0.00 | 0.00 | 0.00 | 41 | 1013.1 |
| 20260504010327 | 56 | 244 | 0.0 | 0.0 | 0.00 | 0.00 | 0.00 | 41 | 1013.1 |
| 20260504010226 | 56 | 244 | 0.0 | 0.0 | 0.00 | 0.00 | 0.00 | 41 | 1013.1 |
| 20260504010132 | 56 | 244 | 0.0 | 0.0 | 0.00 | 0.00 | 0.00 | 41 | 1013.1 |
| 20260504010031 | 56 | 244 | 0.0 | 0.0 | 0.00 | 0.00 | 0.00 | 41 | 1013.1 |
| 20260504005932 | 56 | 244 | 0.0 | 0.0 | 0.00 | 0.00 | 0.00 | 41 | 1013.1 |
| 20260504005830 | 56 | 244 | 0.0 | 0.0 | 0.00 | 0.00 | 0.00 | 40 | 1012.8 |
| 20260504005732 | 56 | 244 | 0.0 | 0.0 | 0.00 | 0.00 | 0.00 | 40 | 1012.8 |
| 20260504005650 | 56 | 244 | 0.0 | 0.0 | 0.00 | 0.00 | 0.00 | 41 | 1012.8 |
| 20260504005530 | 56 | 244 | 0.0 | 0.0 | 0.00 | 0.00 | 0.00 | 41 | 1012.8 |
| 20260504005433 | 56 | 244 | 0.0 | 0.0 | 0.00 | 0.00 | 0.00 | 40 | 1012.8 |
| 20260504005334 | 56 | 244 | 0.0 | 0.0 | 0.00 | 0.00 | 0.00 | 40 | 1012.8 |
| 20260504005256 | 56 | 244 | 0.0 | 0.0 | 0.00 | 0.00 | 0.00 | 40 | 1012.8 |
| 20260504005157 | 56 | 244 | 0.0 | 0.0 | 0.00 | 0.00 | 0.00 | 40 | 1012.8 |
| 20260504005036 | 56 | 244 | 0.0 | 0.0 | 0.00 | 0.00 | 0.00 | 40 | 1012.8 |
| 20260504004936 | 56 | 244 | 0.0 | 0.0 | 0.00 | 0.00 | 0.00 | 40 | 1012.8 |
| 20260504004839 | 56 | 244 | 0.0 | 0.0 | 0.00 | 0.00 | 0.00 | 40 | 1012.8 |
| 20260504004804 | 56 | 244 | 0.0 | 0.0 | 0.00 | 0.00 | 0.00 | 40 | 1012.8 |
| 20260504004644 | 56 | 244 | 0.0 | 0.0 | 0.00 | 0.00 | 0.00 | 39 | 1012.8 |
| 20260504004546 | 57 | 244 | 0.0 | 0.0 | 0.00 | 0.00 | 0.00 | 40 | 1012.8 |
| 20260504004442 | 57 | 244 | 0.0 | 0.0 | 0.00 | 0.00 | 0.00 | 39 | 1012.8 |
| 20260504004324 | 57 | 244 | 0.0 | 0.0 | 0.00 | 0.00 | 0.00 | 39 | 1012.6 |
| 20260504004226 | 57 | 244 | 0.0 | 0.0 | 0.00 | 0.00 | 0.00 | 39 | 1012.6 |
| 20260504004128 | 57 | 244 | 0.0 | 0.0 | 0.00 | 0.00 | 0.00 | 39 | 1012.6 |
| 20260504004026 | 57 | 244 | 0.0 | 0.0 | 0.00 | 0.00 | 0.00 | 39 | 1012.6 |
| 20260504003930 | 57 | 244 | 0.0 | 0.0 | 0.00 | 0.00 | 0.00 | 39 | 1012.6 |
| 20260504003831 | 57 | 244 | 0.0 | 0.0 | 0.00 | 0.00 | 0.00 | 38 | 1012.6 |
| 20260504003736 | 57 | 244 | 0.0 | 0.0 | 0.00 | 0.00 | 0.00 | 39 | 1012.6 |
| 20260504003657 | 57 | 244 | 0.0 | 0.0 | 0.00 | 0.00 | 0.00 | 39 | 1012.6 |
| 20260504003539 | 57 | 244 | 0.0 | 0.0 | 0.00 | 0.00 | 0.00 | 39 | 1012.6 |
| 20260504003456 | 57 | 244 | 0.0 | 0.0 | 0.00 | 0.00 | 0.00 | 39 | 1012.6 |
| 20260504003340 | 57 | 244 | 0.0 | 0.0 | 0.00 | 0.00 | 0.00 | 39 | 1012.6 |
| 20260504003242 | 57 | 244 | 0.0 | 0.0 | 0.00 | 0.00 | 0.00 | 38 | 1012.6 |
| 20260504003145 | 57 | 244 | 0.0 | 0.0 | 0.00 | 0.00 | 0.00 | 38 | 1012.6 |
| 20260504003043 | 57 | 244 | 0.0 | 0.0 | 0.00 | 0.00 | 0.00 | 38 | 1012.6 |
| 20260504002943 | 57 | 244 | 0.0 | 0.0 | 0.00 | 0.00 | 0.00 | 39 | 1012.6 |
| 20260504002845 | 57 | 244 | 0.0 | 0.0 | 0.00 | 0.00 | 0.00 | 38 | 1012.4 |
| 20260504002745 | 57 | 244 | 0.0 | 0.0 | 0.00 | 0.00 | 0.00 | 38 | 1012.4 |
| 20260504002643 | 57 | 244 | 0.0 | 0.0 | 0.00 | 0.00 | 0.00 | 38 | 1012.4 |
| 20260504002550 | 58 | 244 | 0.0 | 0.0 | 0.00 | 0.00 | 0.00 | 37 | 1012.4 |
| 20260504002426 | 58 | 244 | 0.0 | 0.0 | 0.00 | 0.00 | 0.00 | 38 | 1012.4 |
| 20260504002327 | 58 | 244 | 0.0 | 0.0 | 0.00 | 0.00 | 0.00 | 38 | 1012.4 |
| 20260504002245 | 58 | 244 | 0.0 | 0.0 | 0.00 | 0.00 | 0.00 | 37 | 1012.4 |
| 20260504002125 | 58 | 244 | 0.0 | 0.0 | 0.00 | 0.00 | 0.00 | 37 | 1012.4 |
| 20260504002048 | 58 | 244 | 0.0 | 0.0 | 0.00 | 0.00 | 0.00 | 37 | 1012.4 |
| 20260504001928 | 58 | 244 | 0.0 | 0.0 | 0.00 | 0.00 | 0.00 | 37 | 1012.4 |
| 20260504001850 | 58 | 244 | 0.0 | 0.0 | 0.00 | 0.00 | 0.00 | 37 | 1012.4 |
| 20260504001734 | 58 | 244 | 0.0 | 0.0 | 0.00 | 0.00 | 0.00 | 37 | 1012.4 |
| 20260504001653 | 58 | 244 | 0.0 | 0.0 | 0.00 | 0.00 | 0.00 | 37 | 1012.4 |
| 20260504001535 | 58 | 244 | 0.0 | 0.0 | 0.00 | 0.00 | 0.00 | 36 | 1012.4 |
| 20260504001452 | 58 | 244 | 0.0 | 0.0 | 0.00 | 0.00 | 0.00 | 36 | 1012.4 |
| 20260504001333 | 58 | 244 | 0.0 | 0.0 | 0.00 | 0.00 | 0.00 | 36 | 1012.2 |
| 20260504001231 | 58 | 267 | 0.0 | 0.0 | 0.00 | 0.00 | 0.00 | 36 | 1012.2 |
| 20260504001132 | 58 | 267 | 0.0 | 0.0 | 0.00 | 0.00 | 0.00 | 36 | 1012.2 |
| 20260504001035 | 58 | 267 | 0.0 | 0.0 | 0.00 | 0.00 | 0.00 | 36 | 1012.2 |
| 20260504000939 | 58 | 267 | 0.0 | 0.0 | 0.00 | 0.00 | 0.00 | 36 | 1012.2 |
| 20260504000842 | 58 | 267 | 0.0 | 0.0 | 0.00 | 0.00 | 0.00 | 36 | 1012.2 |
| 20260504000742 | 58 | 267 | 0.0 | 0.0 | 0.00 | 0.00 | 0.00 | 36 | 1012.2 |
| 20260504000639 | 59 | 267 | 0.0 | 0.0 | 0.00 | 0.00 | 0.00 | 36 | 1012.2 |
| 20260504000541 | 59 | 267 | 0.0 | 0.0 | 0.00 | 0.00 | 0.00 | 35 | 1012.2 |
| 20260504000438 | 59 | 267 | 0.0 | 0.0 | 0.00 | 0.00 | 0.00 | 35 | 1012.2 |
| 20260504000327 | 59 | 267 | 0.0 | 0.0 | 0.00 | 0.00 | 0.00 | 35 | 1012.2 |
| 20260504000226 | 59 | 267 | 0.0 | 0.0 | 0.00 | 0.00 | 0.00 | 35 | 1012.2 |
| 20260504000146 | 59 | 267 | 0.0 | 0.0 | 0.00 | 0.00 | 0.00 | 35 | 1012.2 |
| 20260504000045 | 59 | 267 | 0.0 | 0.0 | 0.00 | 0.00 | 0.00 | 34 | 1012.2 |
| 20260503235946 | 59 | 267 | 0.0 | 0.0 | 0.00 | 0.00 | 0.00 | 34 | 1012.2 |
| 20260503235824 | 59 | 268 | 0.0 | 0.0 | 0.00 | 0.00 | 0.00 | 34 | 1012.1 |
| 20260503235729 | 59 | 268 | 0.0 | 0.0 | 0.00 | 0.00 | 0.00 | 34 | 1012.1 |
| 20260503235627 | 59 | 268 | 0.0 | 0.0 | 0.00 | 0.00 | 0.00 | 33 | 1012.1 |
| 20260503235530 | 59 | 216 | 0.0 | 0.0 | 0.00 | 0.00 | 0.00 | 34 | 1012.1 |
| 20260503235426 | 59 | 216 | 0.0 | 0.0 | 0.00 | 0.00 | 0.00 | 33 | 1012.1 |
| 20260503235327 | 59 | 216 | 0.0 | 0.0 | 0.00 | 0.00 | 0.00 | 33 | 1012.1 |
| 20260503235225 | 59 | 224 | 0.0 | 0.0 | 0.00 | 0.00 | 0.00 | 33 | 1012.1 |
| 20260503235147 | 59 | 218 | 0.0 | 0.0 | 0.00 | 0.00 | 0.00 | 33 | 1012.1 |
| 20260503235033 | 59 | 216 | 0.0 | 0.0 | 0.00 | 0.00 | 0.00 | 33 | 1012.1 |
| 20260503234934 | 59 | 242 | 0.0 | 0.0 | 0.00 | 0.00 | 0.00 | 33 | 1012.1 |
| 20260503234855 | 59 | 242 | 0.0 | 0.0 | 0.00 | 0.00 | 0.00 | 33 | 1012.1 |
| 20260503234736 | 59 | 242 | 0.0 | 0.0 | 0.00 | 0.00 | 0.00 | 33 | 1012.1 |
| 20260503234658 | 59 | 242 | 0.0 | 0.0 | 0.00 | 0.00 | 0.00 | 33 | 1012.1 |
| 20260503234539 | 59 | 269 | 0.0 | 0.0 | 0.00 | 0.00 | 0.00 | 33 | 1012.1 |
| 20260503234439 | 60 | 270 | 0.0 | 0.0 | 0.00 | 0.00 | 0.00 | 33 | 1012.1 |
| 20260503234341 | 60 | 263 | 0.0 | 0.0 | 0.00 | 0.00 | 0.00 | 33 | 1012.0 |
| 20260503234242 | 60 | 263 | 0.0 | 0.0 | 0.00 | 0.00 | 0.00 | 33 | 1012.0 |
| 20260503234143 | 60 | 263 | 0.0 | 0.0 | 0.00 | 0.00 | 0.00 | 33 | 1012.0 |
| 20260503234025 | 60 | 256 | 0.0 | 0.0 | 0.00 | 0.00 | 0.00 | 32 | 1012.0 |
| 20260503233946 | 60 | 242 | 0.0 | 0.0 | 0.00 | 0.00 | 0.00 | 32 | 1012.0 |
| 20260503233823 | 60 | 290 | 0.9 | 0.0 | 0.00 | 0.00 | 0.00 | 33 | 1012.0 |
| 20260503233729 | 60 | 290 | 0.9 | 0.0 | 0.00 | 0.00 | 0.00 | 32 | 1012.0 |
| 20260503233630 | 60 | 290 | 0.9 | 0.0 | 0.00 | 0.00 | 0.00 | 32 | 1012.0 |
| 20260503233535 | 60 | 290 | 0.9 | 0.0 | 0.00 | 0.00 | 0.00 | 32 | 1012.0 |
| 20260503233436 | 60 | 290 | 0.9 | 0.0 | 0.00 | 0.00 | 0.00 | 32 | 1012.0 |
| 20260503233357 | 60 | 248 | 0.9 | 0.0 | 0.00 | 0.00 | 0.00 | 32 | 1012.0 |
| 20260503233233 | 60 | 219 | 0.9 | 0.0 | 0.00 | 0.00 | 0.00 | 31 | 1012.0 |
| 20260503233134 | 60 | 271 | 0.0 | 0.0 | 0.00 | 0.00 | 0.00 | 31 | 1012.0 |
| 20260503233033 | 60 | 277 | 0.9 | 0.0 | 0.00 | 0.00 | 0.00 | 32 | 1012.0 |
| 20260503232939 | 60 | 277 | 0.9 | 0.0 | 0.00 | 0.00 | 0.00 | 31 | 1012.0 |
| 20260503232836 | 60 | 188 | 0.9 | 0.0 | 0.00 | 0.00 | 0.00 | 31 | 1011.8 |
| 20260503232739 | 61 | 290 | 0.0 | 0.0 | 0.00 | 0.00 | 0.00 | 31 | 1011.8 |
| 20260503232637 | 61 | 290 | 0.0 | 0.0 | 0.00 | 0.00 | 0.00 | 31 | 1011.8 |
| 20260503232540 | 61 | 276 | 0.0 | 0.0 | 0.00 | 0.00 | 0.00 | 31 | 1011.8 |
| 20260503232436 | 61 | 250 | 0.0 | 0.0 | 0.00 | 0.00 | 0.00 | 31 | 1011.8 |
| 20260503232342 | 61 | 250 | 0.9 | 0.0 | 0.00 | 0.00 | 0.00 | 31 | 1011.8 |
| 20260503232305 | 61 | 251 | 0.9 | 0.0 | 0.00 | 0.00 | 0.00 | 31 | 1011.8 |
| 20260503232124 | 61 | 305 | 0.9 | 0.0 | 0.00 | 0.00 | 0.00 | 31 | 1011.8 |
| 20260503232046 | 61 | 305 | 0.9 | 0.0 | 0.00 | 0.00 | 0.00 | 31 | 1011.8 |
| 20260503231945 | 61 | 320 | 0.0 | 0.0 | 0.00 | 0.00 | 0.00 | 31 | 1011.8 |
| 20260503231843 | 61 | 294 | 0.0 | 0.0 | 0.00 | 0.00 | 0.00 | 31 | 1011.8 |
| 20260503231745 | 61 | 294 | 0.9 | 0.0 | 0.00 | 0.00 | 0.00 | 31 | 1011.8 |
| 20260503231627 | 61 | 239 | 0.9 | 0.0 | 0.00 | 0.00 | 0.00 | 32 | 1011.8 |
| 20260503231532 | 61 | 217 | 0.9 | 0.0 | 0.00 | 0.00 | 0.00 | 31 | 1011.8 |
| 20260503231430 | 61 | 268 | 0.9 | 0.0 | 0.00 | 0.00 | 0.00 | 32 | 1011.8 |
| 20260503231332 | 61 | 242 | 0.0 | 0.0 | 0.00 | 0.00 | 0.00 | 31 | 1011.7 |
| 20260503231231 | 61 | 322 | 0.0 | 0.0 | 0.00 | 0.00 | 0.00 | 30 | 1011.7 |
| 20260503231133 | 61 | 322 | 0.0 | 0.0 | 0.00 | 0.00 | 0.00 | 30 | 1011.7 |
| 20260503231031 | 61 | 322 | 0.9 | 0.0 | 0.00 | 0.00 | 0.00 | 31 | 1011.7 |
| 20260503230935 | 61 | 322 | 0.9 | 0.0 | 0.00 | 0.00 | 0.00 | 30 | 1011.7 |
| 20260503230835 | 61 | 322 | 0.9 | 0.0 | 0.00 | 0.00 | 0.00 | 31 | 1011.7 |
| 20260503230736 | 61 | 297 | 0.9 | 0.0 | 0.00 | 0.00 | 0.00 | 30 | 1011.7 |
| 20260503230654 | 61 | 297 | 0.9 | 0.0 | 0.00 | 0.00 | 0.00 | 30 | 1011.7 |
| 20260503230535 | 61 | 297 | 1.7 | 0.0 | 0.00 | 0.00 | 0.00 | 30 | 1011.7 |
| 20260503230436 | 61 | 260 | 1.7 | 0.0 | 0.00 | 0.00 | 0.00 | 30 | 1011.7 |
| 20260503230339 | 61 | 287 | 1.7 | 0.0 | 0.00 | 0.00 | 0.00 | 30 | 1011.7 |
| 20260503230220 | 61 | 242 | 1.7 | 0.0 | 0.00 | 0.00 | 0.00 | 30 | 1011.7 |
| 20260503230127 | 61 | 252 | 0.9 | 0.0 | 0.00 | 0.00 | 0.00 | 29 | 1011.7 |
| 20260503230029 | 61 | 299 | 0.9 | 0.0 | 0.00 | 0.00 | 0.00 | 30 | 1011.7 |
| 20260503225928 | 61 | 303 | 0.9 | 0.0 | 0.00 | 0.00 | 0.00 | 30 | 1011.7 |
| 20260503225827 | 61 | 289 | 0.9 | 0.0 | 0.00 | 0.00 | 0.00 | 30 | 1011.6 |
| 20260503225731 | 61 | 233 | 0.9 | 0.0 | 0.00 | 0.00 | 0.00 | 30 | 1011.6 |
| 20260503225634 | 61 | 276 | 0.9 | 0.0 | 0.00 | 0.00 | 0.00 | 30 | 1011.6 |
| 20260503225536 | 61 | 236 | 0.9 | 0.0 | 0.00 | 0.00 | 0.00 | 31 | 1011.6 |
| 20260503225434 | 61 | 271 | 0.9 | 0.0 | 0.00 | 0.00 | 0.00 | 30 | 1011.6 |
| 20260503225335 | 61 | 272 | 0.9 | 0.0 | 0.00 | 0.00 | 0.00 | 30 | 1011.6 |
| 20260503225253 | 61 | 277 | 0.9 | 0.0 | 0.00 | 0.00 | 0.00 | 30 | 1011.6 |
| 20260503225133 | 61 | 267 | 0.9 | 0.0 | 0.00 | 0.00 | 0.00 | 30 | 1011.6 |
| 20260503225052 | 61 | 249 | 0.9 | 0.0 | 0.00 | 0.00 | 0.00 | 29 | 1011.6 |
| 20260503224935 | 61 | 280 | 0.9 | 0.0 | 0.00 | 0.00 | 0.00 | 29 | 1011.6 |
| 20260503224836 | 61 | 311 | 0.9 | 0.0 | 0.00 | 0.00 | 0.00 | 29 | 1011.6 |
| 20260503224740 | 61 | 277 | 0.9 | 0.0 | 0.00 | 0.00 | 0.00 | 29 | 1011.6 |
| 20260503224642 | 61 | 278 | 0.9 | 0.0 | 0.00 | 0.00 | 0.00 | 30 | 1011.6 |
| 20260503224544 | 61 | 279 | 0.9 | 0.0 | 0.00 | 0.00 | 0.00 | 29 | 1011.6 |
| 20260503224425 | 61 | 278 | 0.9 | 0.0 | 0.00 | 0.00 | 0.00 | 29 | 1011.6 |
| 20260503224331 | 61 | 301 | 0.9 | 0.0 | 0.00 | 0.00 | 0.00 | 30 | 1011.6 |
| 20260503224228 | 61 | 302 | 0.9 | 0.0 | 0.00 | 0.00 | 0.00 | 29 | 1011.6 |
| 20260503224129 | 61 | 302 | 0.9 | 0.0 | 0.00 | 0.00 | 0.00 | 29 | 1011.6 |
| 20260503224032 | 61 | 307 | 0.9 | 0.0 | 0.00 | 0.00 | 0.00 | 29 | 1011.6 |
| 20260503223936 | 61 | 266 | 0.9 | 0.0 | 0.00 | 0.00 | 0.00 | 29 | 1011.6 |
| 20260503223837 | 61 | 274 | 0.9 | 0.0 | 0.00 | 0.00 | 0.00 | 29 | 1011.6 |
| 20260503223758 | 61 | 326 | 0.9 | 0.0 | 0.00 | 0.00 | 0.00 | 29 | 1011.6 |
| 20260503223641 | 61 | 329 | 0.0 | 0.0 | 0.00 | 0.00 | 0.00 | 29 | 1011.6 |
| 20260503223544 | 61 | 300 | 0.0 | 0.0 | 0.00 | 0.00 | 0.00 | 29 | 1011.6 |